GFSSE_850_spd_036.txt.gz
Wind_Speed
34 32 28 26 25 24 24 23 20 18 17 16 18 20 22 24 24 23 23 23 22 22 22 21 21 21 22 23 23 23 21 23 23 25 26 22 20 18 16 15 13 13 12
38 36 32 28 26 26 24 22 20 18 17 19 23 24 24 24 25 24 25 25 25 25 24 23 21 21 22 21 21 21 22 21 22 24 24 23 22 20 18 16 15 14 13
37 36 34 30 28 26 25 24 22 20 22 24 25 25 24 25 26 28 28 28 27 26 24 23 21 20 20 20 20 20 21 21 21 22 22 23 23 21 19 17 16 15 13
34 35 32 30 29 28 26 24 23 22 25 26 26 25 26 28 30 31 29 28 26 25 23 21 21 21 20 18 18 18 18 18 18 19 19 20 21 20 18 17 16 16 14
31 34 32 30 28 28 27 26 23 25 25 26 25 26 28 31 31 30 29 26 24 23 21 19 18 17 16 16 17 17 17 16 16 17 18 18 18 19 18 16 14 14 13
31 34 31 29 29 26 23 23 24 25 26 26 26 28 30 31 31 29 28 26 24 22 22 19 17 15 16 15 15 15 14 14 15 15 16 16 17 17 16 15 14 13 11
29 30 30 29 28 26 23 22 23 26 26 25 26 29 30 31 29 27 26 25 23 20 20 19 17 16 16 17 15 13 12 13 14 13 14 15 17 18 17 15 14 12 11
29 29 28 29 28 26 23 21 24 25 24 24 26 28 30 29 27 25 24 23 20 18 16 16 16 15 15 14 13 11 10 11 12 11 12 15 16 16 16 15 14 14 12
27 29 28 31 31 28 21 21 22 23 22 22 25 27 28 26 24 22 20 18 16 14 12 10 10 10 11 11 12 12 11 12 12 13 14 15 16 14 13 14 15 15 14
24 31 32 25 35 26 20 20 20 20 20 19 24 26 26 24 22 20 16 13 12 10 10 8 7 7 8 9 10 9 12 12 13 14 16 17 19 17 15 15 15 16 17
16 22 37 43 38 24 23 21 18 13 16 21 23 24 24 22 19 17 14 11 9 7 6 5 4 5 7 8 10 12 11 12 12 13 15 16 16 13 15 14 16 17 17
31 28 29 33 33 28 23 16 14 17 19 22 23 23 21 19 17 16 13 10 7 5 3 3 2 3 6 8 10 9 9 9 10 13 14 14 13 10 14 15 16 17 16
29 29 42 41 32 35 30 22 20 20 21 23 22 21 19 19 16 13 11 8 6 4 2 2 7 6 6 7 7 7 10 12 13 14 14 13 12 7 11 14 16 13 10
28 36 27 26 33 27 23 22 20 20 21 22 21 20 18 17 14 12 10 6 5 3 2 5 6 4 6 7 9 11 14 15 18 19 18 14 10 10 7 12 15 12 8
34 37 43 35 27 22 20 19 21 22 22 22 20 19 16 14 12 10 8 7 6 5 5 5 5 6 8 10 11 13 14 17 19 21 17 14 12 12 10 7 10 10 8
29 30 22 21 21 20 19 20 22 22 23 21 18 15 13 12 10 9 9 9 9 7 7 7 7 8 7 10 13 15 18 20 20 17 14 13 13 13 10 8 10 6 4
30 29 22 18 18 18 17 18 21 22 21 19 17 15 12 10 10 10 11 11 11 9 8 7 6 8 9 13 16 18 18 17 15 13 13 11 9 10 10 10 10 8 4
27 24 22 21 20 19 18 19 21 23 20 16 15 15 12 10 11 14 15 14 12 10 7 6 7 9 12 16 17 16 15 14 14 14 13 14 14 11 7 9 9 10 9
25 24 23 22 20 20 21 21 19 21 20 17 17 15 12 13 16 18 16 14 12 8 6 7 9 12 15 14 15 15 15 14 15 14 14 14 13 7 6 7 10 11 12
26 24 24 23 21 21 21 21 22 22 21 20 20 15 14 17 19 19 16 13 10 7 8 9 11 12 13 15 16 14 16 16 13 11 10 15 10 10 13 12 12 15 17
27 26 27 27 26 25 26 27 25 24 24 23 17 15 16 16 16 16 14 12 9 9 9 8 10 11 14 17 17 19 16 9 8 9 14 15 15 19 20 14 13 15 16
30 29 30 30 29 27 27 26 25 23 23 19 19 18 15 13 13 14 14 12 12 10 8 10 13 15 18 20 19 19 9 12 7 11 16 17 20 19 12 16 19 19 19
34 33 33 32 29 29 28 28 27 26 25 25 24 20 15 15 16 17 16 14 12 9 9 13 16 18 21 22 21 16 7 4 21 12 21 14 20 15 15 19 22 22 22
36 33 34 33 32 31 30 30 31 31 32 31 27 21 19 19 19 17 15 14 12 10 11 14 17 22 28 24 19 16 14 14 11 13 12 17 19 17 19 20 20 25 24
36 36 33 33 31 34 32 32 33 34 34 32 25 24 23 22 20 17 17 16 15 12 13 19 22 32 26 20 18 16 14 13 16 20 24 19 20 18 21 21 24 23 23
37 36 35 35 33 35 35 36 36 37 37 32 27 28 26 24 20 20 20 18 14 13 17 24 30 24 20 19 17 15 15 14 14 15 21 25 26 24 21 22 21 24 22

GFSSE_850_spd_039.txt.gz
Wind_Speed
32 32 31 32 32 31 31 30 28 25 22 20 19 19 21 21 22 22 22 22 22 22 23 24 25 25 24 24 22 23 21 22 23 24 22 22 20 18 16 14 12 11 10
35 33 32 31 31 31 30 28 26 24 22 20 22 23 24 24 23 24 23 24 24 24 25 25 24 24 23 22 21 20 20 21 22 22 22 22 21 20 17 15 13 11 9
36 34 31 30 30 29 28 27 25 23 22 24 26 25 25 24 25 26 25 26 26 26 24 23 22 21 21 20 19 18 19 20 20 20 21 20 20 19 17 16 15 13 11
34 34 32 30 29 27 26 24 23 23 25 27 27 27 27 27 27 27 26 26 25 24 23 22 21 19 18 18 17 17 18 18 19 18 20 19 18 17 16 16 14 14 13
34 33 33 32 29 27 25 23 23 25 27 28 28 29 29 29 28 27 26 24 23 22 22 21 19 18 17 17 17 16 17 17 16 17 18 18 16 17 16 15 13 12 12
34 33 33 32 31 28 26 25 26 28 28 28 30 32 31 29 27 27 26 24 22 22 21 20 18 17 16 16 16 14 15 15 15 16 17 17 17 16 15 14 14 12 12
31 31 31 32 31 29 27 27 29 29 28 29 32 33 33 30 27 26 26 24 23 22 21 20 19 19 18 15 13 13 13 14 14 15 16 16 17 16 15 14 13 13 12
30 32 30 29 30 30 29 28 28 28 28 30 33 33 32 30 28 25 23 22 21 20 20 19 18 17 15 14 14 13 12 13 13 14 15 14 16 15 14 15 14 14 13
26 30 33 34 28 26 28 30 28 27 26 31 33 32 31 29 27 23 20 19 17 17 15 14 13 13 12 12 12 11 12 13 13 14 14 11 15 13 13 14 15 15 14
23 32 34 34 36 33 24 25 25 26 26 30 31 30 29 27 24 21 19 16 14 12 11 10 10 9 8 9 9 11 13 13 15 16 13 13 16 14 12 12 14 15 15
28 34 38 37 41 33 24 24 25 26 28 28 29 29 27 25 22 19 16 14 12 10 9 7 6 5 6 7 8 11 12 13 14 16 15 16 16 15 12 12 14 15 14
18 23 30 42 30 40 25 24 24 24 26 27 28 27 25 22 19 17 14 11 9 8 5 4 3 2 4 6 8 11 12 14 14 12 13 14 12 12 14 15 15 13 12
24 33 47 39 32 26 29 26 32 23 25 25 27 26 24 20 18 14 11 8 7 4 2 1 2 2 5 7 9 12 12 13 13 14 14 13 10 5 12 15 15 13 10
38 42 45 48 43 33 29 27 22 24 23 26 26 23 21 19 15 13 10 9 7 5 3 1 3 4 5 8 10 9 11 14 16 17 16 12 9 8 6 12 14 14 11
37 44 42 40 41 34 28 18 20 21 23 25 24 22 19 16 13 12 10 8 8 6 3 4 5 5 7 9 10 12 14 16 17 16 14 13 11 10 9 9 12 14 13
37 35 31 23 35 22 18 18 21 22 23 23 21 19 17 14 12 11 10 10 8 7 6 6 6 6 8 10 11 13 16 17 16 14 12 11 9 7 8 8 10 9 12
30 31 32 35 26 21 18 19 20 21 22 22 19 18 15 14 14 12 11 11 9 8 7 6 6 7 8 10 13 16 16 14 13 11 10 9 9 8 5 7 12 12 6
35 33 28 24 21 19 17 16 18 20 21 20 19 16 16 15 13 14 10 11 10 9 8 7 7 7 8 11 14 14 14 13 12 11 9 9 9 7 2 8 11 14 14
31 31 25 21 18 17 16 16 17 20 21 19 18 18 17 14 12 12 13 13 11 11 10 9 7 7 10 11 12 12 12 12 10 8 7 8 8 3 2 5 9 11 13
25 29 27 22 19 18 17 17 19 21 22 21 19 18 16 13 13 15 15 14 14 13 12 10 7 8 9 10 10 11 13 11 8 7 6 10 9 7 10 11 11 14 15
27 27 27 26 22 20 20 22 24 24 23 23 22 20 18 15 17 17 16 16 15 15 13 10 8 9 9 10 11 14 9 10 8 6 9 15 11 15 13 11 8 13 14
29 29 28 27 24 23 22 24 25 23 23 23 24 21 18 19 16 16 16 16 17 16 12 10 9 9 9 10 10 13 7 9 8 9 17 11 14 14 15 11 14 18 17
33 32 30 29 27 27 26 25 25 24 25 27 25 21 21 18 16 17 18 18 17 15 14 11 8 7 12 14 16 14 6 5 12 9 13 12 11 20 16 15 18 19 18
35 34 33 31 29 29 28 29 29 30 30 30 24 21 21 20 19 18 20 19 18 16 13 10 9 10 15 22 24 18 15 14 6 9 7 12 18 18 15 15 18 18 22
31 32 31 30 29 30 31 30 31 31 31 29 26 24 24 23 21 21 21 20 20 18 15 12 9 16 24 21 16 16 14 14 14 12 18 14 16 12 13 16 17 21 22
33 33 32 31 31 29 28 31 31 32 32 31 29 28 27 25 24 24 23 23 21 20 17 13 20 26 17 16 15 14 14 9 9 10 15 18 18 15 14 13 15 20 23

GFSSE_850_spd_042.txt.gz
Wind_Speed
23 27 29 28 29 31 32 31 28 26 23 22 21 18 17 19 20 21 20 21 22 24 24 24 24 23 22 21 21 21 22 22 22 23 21 20 19 17 16 15 17 16 13
27 30 31 30 31 32 32 30 28 25 23 22 20 20 21 22 23 23 22 24 24 25 25 24 24 24 21 21 21 22 22 22 21 24 24 20 19 18 17 16 14 13 13
29 30 34 32 31 32 31 30 27 25 23 22 23 24 25 24 24 24 24 25 25 24 23 23 22 21 21 20 20 20 20 21 20 25 21 16 18 17 17 16 15 14 13
28 30 31 34 33 32 31 30 28 25 25 25 27 27 26 25 25 26 27 26 24 24 23 22 21 19 19 18 19 19 19 19 22 21 16 15 16 16 15 14 14 14 14
29 28 31 35 34 33 31 29 27 26 28 28 27 27 27 27 28 27 26 25 25 24 22 20 19 18 18 17 18 17 18 17 23 15 15 15 14 15 14 14 14 12 11
30 29 35 35 33 32 31 29 29 31 30 29 28 28 29 28 28 27 25 25 23 22 21 19 18 18 16 16 15 15 16 19 15 14 14 15 14 15 14 12 12 11 11
33 31 36 35 33 31 30 30 31 31 31 30 31 31 30 29 28 26 25 24 23 22 20 19 19 17 15 15 14 14 15 18 14 13 13 13 13 13 13 12 11 10 9
33 31 35 33 31 29 27 30 32 32 31 33 33 31 30 29 28 26 25 23 22 21 21 20 17 15 14 14 13 13 14 17 13 12 12 12 14 12 12 12 13 12 10
25 32 34 33 30 28 31 32 30 32 34 34 32 31 29 28 27 25 24 22 20 19 17 17 14 12 12 11 12 12 13 13 11 11 9 7 12 12 11 12 13 12 11
25 32 37 37 36 34 26 28 29 31 34 33 31 29 27 26 25 23 21 19 17 15 13 12 11 9 8 8 11 12 12 15 9 9 7 8 13 11 9 11 12 13 12
27 32 36 38 36 35 30 26 28 29 32 34 32 28 26 23 21 19 17 16 15 13 11 9 8 7 6 7 10 11 13 7 8 8 5 13 10 11 13 13 13 12 10
32 38 41 41 44 34 25 22 25 28 31 34 30 29 20 20 16 17 16 14 12 10 8 6 5 5 6 5 7 9 6 8 7 7 7 12 11 10 13 14 13 12 10
34 41 43 51 46 39 34 21 26 28 31 31 32 27 21 20 20 15 15 13 11 8 7 5 3 2 1 3 5 6 9 8 7 7 9 10 9 7 11 13 14 12 10
30 32 43 42 41 42 37 33 26 28 25 28 26 22 23 18 18 15 11 12 10 9 6 3 2 1 1 4 7 10 11 9 7 7 11 9 6 5 5 11 14 12 10
39 31 41 45 45 47 41 32 27 25 28 26 23 25 19 16 17 13 13 10 9 7 7 3 2 2 4 6 7 10 13 13 12 7 6 9 7 7 7 7 11 11 11
32 37 37 42 39 35 37 32 19 23 27 23 19 23 21 17 15 14 12 10 9 9 7 3 3 3 3 4 8 11 12 11 11 8 5 9 8 6 5 7 10 11 13
30 37 37 38 37 25 25 23 20 20 19 20 22 21 19 17 15 14 13 12 12 9 7 7 7 7 3 5 9 11 10 10 9 9 5 4 6 8 4 5 11 13 10
27 27 24 27 31 21 18 17 16 17 19 19 20 21 19 16 16 16 14 13 12 10 9 9 8 5 4 5 6 7 6 8 10 8 5 3 4 2 6 5 11 15 17
24 24 24 31 26 17 16 17 19 20 20 17 22 21 20 18 17 16 15 13 13 12 12 11 10 6 3 2 4 5 7 5 6 4 3 2 3 2 2 7 10 14 16
23 24 26 27 21 18 16 17 16 18 17 18 21 22 20 19 18 17 16 15 15 16 14 13 12 8 4 5 5 6 8 6 5 5 5 4 5 3 4 6 8 9 15
24 24 25 24 21 19 18 17 16 17 18 19 20 20 20 20 18 16 18 18 18 16 15 15 11 7 4 6 8 9 10 8 7 7 7 7 6 6 7 8 6 8 11
27 28 28 27 24 21 17 18 16 17 17 17 20 22 21 21 20 18 20 19 19 18 18 15 11 7 5 7 6 9 10 11 8 9 10 9 9 8 9 9 9 10 11
28 27 27 25 23 21 19 16 16 16 17 18 24 25 25 25 22 21 20 21 21 20 19 17 14 11 6 8 11 7 8 13 10 11 11 9 9 9 10 10 11 11 12
27 25 25 24 23 23 23 20 22 21 19 20 23 25 24 25 23 24 23 23 23 23 21 19 18 16 9 15 19 15 12 10 9 10 9 9 10 10 11 10 11 13 14
25 26 26 26 26 25 24 24 22 22 19 18 19 22 25 25 27 26 25 25 25 23 23 22 21 15 15 18 16 7 10 10 10 10 15 12 13 13 12 13 12 12 14
26 27 28 29 29 27 24 23 27 25 23 28 28 28 28 27 27 28 26 26 26 25 25 24 19 17 17 13 9 10 11 12 11 13 15 15 15 15 13 12 12 13 15

GFSSE_850_spd_045.txt.gz
Wind_Speed
20 25 27 25 26 30 29 27 26 23 20 18 16 15 14 16 18 19 19 20 21 22 22 22 22 21 22 22 22 22 22 22 25 23 20 20 19 18 16 14 17 18 17
23 27 28 25 27 31 31 29 27 23 21 19 16 15 18 19 19 20 22 23 24 24 24 23 22 22 21 22 22 22 22 23 26 26 24 19 19 18 17 16 16 15 15
24 27 29 27 28 32 32 31 27 24 22 19 17 19 21 22 23 23 24 25 25 25 24 24 22 21 20 21 22 23 23 28 26 23 17 17 18 17 17 16 15 16 14
24 25 28 28 29 33 33 31 28 25 23 20 21 22 24 24 25 25 26 25 24 24 23 22 21 20 20 21 20 21 23 27 23 17 14 15 17 16 16 14 14 15 14
24 23 27 29 30 32 32 30 28 24 21 24 25 25 25 26 27 27 26 25 24 22 22 21 21 19 19 19 19 21 26 24 21 15 16 16 16 16 13 12 13 11 11
20 29 26 32 33 33 32 29 25 23 25 28 27 27 28 29 28 26 26 26 24 21 20 20 19 18 17 17 17 20 24 20 18 14 15 16 15 14 13 13 13 11 10
26 34 31 33 33 33 31 26 24 25 29 29 29 30 31 30 28 26 25 25 23 21 20 20 18 16 16 15 16 18 20 20 14 12 13 14 15 14 14 14 13 12 11
30 34 33 33 33 32 29 27 26 29 30 29 30 31 31 28 27 25 24 23 22 21 20 18 16 15 15 14 15 16 17 17 11 11 11 12 14 13 13 13 13 12 11
30 30 36 27 30 31 30 30 31 31 29 30 31 31 29 27 26 25 24 23 22 21 19 16 13 13 13 14 14 14 17 17 12 10 8 8 13 12 13 14 14 13 11
27 32 37 26 24 28 29 28 26 28 30 30 30 30 28 26 24 22 21 20 18 17 16 12 11 10 10 11 12 14 16 15 10 8 5 12 13 11 11 12 12 12 10
30 30 38 32 23 24 29 31 30 29 30 30 28 28 27 24 21 18 17 17 15 13 12 10 10 8 7 9 12 15 13 7 7 7 3 13 10 10 11 11 12 11 10
31 31 34 39 41 41 36 28 26 28 30 31 30 27 24 22 15 14 18 15 13 11 10 8 8 9 11 7 9 10 5 6 6 6 7 9 7 6 10 12 11 11 9
33 31 35 38 39 39 39 34 26 27 23 31 29 22 18 18 19 16 16 15 13 10 10 8 7 7 5 4 3 4 5 5 4 4 9 11 6 3 8 11 11 10 9
29 37 39 40 45 40 36 36 32 31 32 28 26 16 20 14 15 12 11 10 10 9 8 7 6 4 3 1 1 4 6 4 4 3 13 10 5 5 4 9 10 9 9
24 32 45 41 40 42 41 36 25 28 31 21 22 17 19 13 14 13 12 11 10 11 10 8 4 4 3 2 1 2 6 9 6 2 7 10 7 5 7 7 12 11 11
22 32 40 43 38 39 37 32 31 32 32 19 21 21 16 13 14 12 12 11 11 10 9 7 7 6 5 4 2 5 6 2 3 2 1 10 11 6 6 9 11 12 11
32 35 32 28 33 40 39 39 39 33 21 21 18 17 19 16 15 12 12 11 11 10 10 8 9 8 5 4 4 3 3 4 3 4 1 1 10 11 6 6 11 13 12
24 26 29 28 36 38 36 37 17 14 15 15 14 14 15 15 14 14 12 11 12 13 10 8 8 7 7 6 5 3 2 4 6 4 3 1 3 4 11 5 10 14 17
26 28 26 31 30 26 27 22 16 15 16 15 15 15 19 17 17 14 12 12 15 11 10 10 9 9 8 5 5 4 5 5 7 5 6 4 5 3 4 12 10 13 17
24 23 22 26 25 20 19 15 14 15 16 16 16 16 18 16 19 18 13 14 13 11 10 10 10 9 8 7 6 8 8 8 7 8 8 6 6 6 5 7 9 12 13
25 25 22 26 28 19 19 17 16 17 17 18 17 18 18 17 19 19 14 15 14 13 13 14 12 11 8 8 5 7 11 17 14 9 10 9 9 8 8 8 9 7 12
24 25 25 26 24 22 18 18 17 16 18 18 18 21 21 18 18 19 17 16 15 15 16 16 14 10 9 9 6 7 10 12 12 12 11 11 11 10 10 10 11 11 12
27 27 27 26 24 21 20 16 16 15 16 19 19 18 23 21 20 21 19 18 17 17 17 17 17 15 11 10 9 11 7 10 12 12 13 12 11 12 10 12 12 12 13
29 27 27 26 26 26 22 21 20 19 20 18 21 22 23 22 21 21 20 20 21 18 17 17 16 15 15 13 15 15 15 12 8 10 10 12 13 10 12 11 11 12 13
28 29 29 28 27 25 25 24 22 19 17 17 19 20 21 18 23 23 22 23 23 19 17 18 17 18 16 17 14 12 8 9 12 14 16 13 12 12 13 13 13 13 13
30 30 31 30 29 28 27 25 24 22 20 21 22 22 19 20 20 24 25 26 25 26 23 21 23 21 20 18 18 12 11 11 14 15 18 18 17 17 17 15 15 12 12

GFSSE_850_spd_048.txt.gz
Wind_Speed
12 26 27 29 30 31 29 28 26 23 21 18 15 14 15 19 20 21 21 22 23 22 23 23 23 23 23 24 25 26 28 31 29 22 21 21 19 17 16 17 20 20 20
10 21 24 26 30 30 28 27 26 23 21 19 15 15 18 20 21 22 23 24 23 24 24 23 23 24 25 25 27 31 33 31 28 27 19 20 19 18 19 19 18 17 17
20 15 21 22 28 30 29 27 25 23 21 18 16 19 21 22 23 25 25 26 24 25 24 24 25 24 25 26 27 31 28 25 26 26 16 20 21 19 18 17 17 16 15
14 16 20 23 26 29 29 26 24 22 21 18 18 22 23 24 26 26 26 26 25 25 25 24 24 24 24 25 28 29 28 28 22 17 12 14 17 17 17 15 15 15 14
23 17 18 22 26 31 29 27 24 22 20 18 22 24 26 27 27 27 26 25 25 24 24 23 22 22 23 25 28 27 24 22 15 12 13 14 17 15 14 14 14 13 13
24 17 21 24 26 27 30 27 24 23 20 21 25 26 28 28 27 27 26 25 24 23 23 22 20 20 21 24 26 22 19 21 13 11 17 17 17 16 16 15 14 13 13
25 24 29 13 22 27 28 26 25 22 23 26 28 28 29 29 27 27 26 25 23 22 22 20 19 19 20 21 22 22 24 21 9 9 15 16 16 15 16 15 14 14 12
28 27 24 29 27 24 25 26 24 23 26 28 29 31 30 29 27 27 26 24 22 22 20 18 17 17 17 19 19 20 19 20 12 10 10 15 14 14 14 14 14 13 11
26 26 28 25 24 24 23 23 23 25 28 29 32 32 30 29 27 25 24 23 22 20 18 16 15 16 16 17 20 20 20 16 9 7 6 14 13 14 14 14 14 14 12
29 25 31 28 24 19 16 19 25 28 29 30 31 30 29 27 26 25 23 22 20 19 15 14 13 13 14 16 18 19 16 15 11 2 7 13 11 11 11 12 12 12 11
25 33 32 31 29 31 20 17 20 24 25 28 29 28 28 26 25 23 22 20 18 15 13 13 11 10 13 15 15 14 12 11 6 5 8 13 10 9 10 11 11 11 11
26 27 31 31 31 34 37 27 21 21 25 26 27 28 27 26 22 22 19 17 15 13 11 11 13 13 10 11 12 7 10 10 3 6 8 12 8 6 8 10 9 10 9
28 31 34 34 36 39 38 42 32 29 28 28 28 28 26 21 15 17 17 15 13 11 9 10 12 9 6 8 4 2 8 6 2 7 9 10 9 5 7 10 10 8 7
32 34 33 29 30 36 36 36 38 35 30 30 25 24 18 16 13 16 15 14 12 9 9 8 7 8 8 5 1 2 4 1 5 5 9 9 7 6 5 8 9 6 6
27 32 35 39 43 42 43 43 34 34 32 26 24 22 19 14 13 9 8 6 6 6 5 7 10 6 5 4 2 2 5 7 4 2 8 10 8 6 7 7 9 8 7
26 32 37 40 40 41 39 33 35 28 29 25 24 28 20 13 16 13 14 10 9 15 11 11 5 4 3 3 4 2 3 3 1 5 5 11 11 8 5 10 10 11 10
26 27 33 36 35 40 42 40 36 30 31 34 26 18 20 12 17 14 17 13 18 13 13 10 12 6 9 4 9 5 4 5 5 6 3 7 10 11 8 7 10 12 12
31 37 38 38 39 41 37 31 34 36 35 28 21 17 22 21 15 15 13 18 15 16 18 15 13 10 8 8 9 7 6 7 10 9 4 6 3 6 9 7 6 13 16
27 24 28 28 34 36 26 30 39 31 17 20 16 22 21 23 16 20 17 17 19 19 14 11 9 11 11 12 10 10 12 10 12 5 10 13 10 9 3 6 10 10 14
29 26 24 30 31 35 36 34 19 17 19 19 23 21 20 21 24 21 20 19 20 16 14 16 15 15 14 11 10 11 15 15 14 12 13 11 8 15 10 8 11 9 11
25 27 29 34 38 38 42 42 26 24 24 26 24 20 23 21 23 24 20 21 19 17 16 17 18 18 19 20 18 14 12 16 18 18 15 13 9 14 14 14 16 9 10
21 22 31 32 32 32 33 30 26 24 22 23 23 22 22 23 23 22 22 21 21 18 20 21 21 21 17 17 14 11 10 8 18 16 14 15 14 14 13 14 12 13 15
30 25 25 24 30 30 25 25 25 20 20 22 24 25 29 29 23 23 20 22 22 19 22 23 23 20 17 20 17 13 6 5 12 14 16 16 15 16 18 15 20 16 15
34 30 31 32 29 28 23 23 23 26 24 25 25 25 23 22 27 23 22 22 24 24 23 26 23 21 22 18 19 17 13 12 7 6 7 13 18 20 18 17 14 17 18
33 38 33 33 30 29 27 28 23 25 20 24 26 26 29 25 24 25 24 24 29 27 25 26 23 20 22 25 21 20 12 10 11 11 15 14 14 18 15 17 17 16 16
36 36 36 36 36 35 31 27 26 26 23 22 23 25 27 21 18 25 26 26 30 29 25 26 26 25 28 26 20 17 13 9 10 11 14 15 14 15 16 18 19 21 23

GFSSE_850_spd_051.txt.gz
Wind_Speed
22 18 25 29 28 31 32 30 28 25 22 20 18 21 25 27 27 25 24 27 28 28 28 27 26 27 28 30 31 32 31 29 22 21 22 21 21 22 21 21 22 21 20
22 20 20 24 28 29 30 30 28 26 23 20 19 22 25 26 26 27 27 28 28 28 29 28 28 30 33 34 33 31 28 26 24 20 20 21 21 22 21 19 18 19 20
12 19 19 26 29 29 30 29 27 25 23 21 21 24 25 26 28 28 28 28 29 28 28 29 30 32 33 31 28 24 22 20 17 18 20 22 22 20 19 18 17 17 16
20 27 19 22 29 29 28 28 26 25 23 21 24 25 26 28 28 28 29 29 28 28 29 29 29 30 32 32 33 30 22 16 14 14 20 19 19 18 17 16 15 15 14
14 22 35 29 29 29 29 28 26 25 23 23 26 27 29 29 29 28 30 28 28 28 28 28 29 32 32 29 26 21 17 13 10 16 19 19 19 18 17 16 15 14 14
18 19 24 34 25 29 31 29 26 25 23 26 28 29 30 30 29 28 28 28 27 27 26 27 27 28 28 26 20 17 15 15 15 20 18 18 18 16 16 15 14 13 15
20 23 25 25 28 26 27 31 26 24 24 27 30 31 31 30 29 27 27 27 26 25 25 25 25 27 26 27 26 19 14 12 13 17 18 16 16 15 14 14 13 13 12
19 22 23 22 23 11 32 28 25 23 26 29 31 31 31 30 29 27 26 26 25 24 23 22 22 23 24 23 24 21 13 9 9 13 17 14 13 13 13 13 12 13 12
17 23 21 20 19 29 20 29 24 25 28 30 30 30 29 29 28 26 25 25 24 21 20 20 20 20 22 22 21 21 12 4 6 9 12 13 12 12 13 13 12 13 13
22 25 22 29 32 28 26 25 20 25 27 30 31 30 28 28 27 25 25 24 22 19 18 19 18 19 22 23 21 17 13 9 6 7 10 14 11 10 11 12 12 12 12
28 27 31 26 27 28 26 27 20 24 28 30 29 29 29 28 26 24 23 21 19 18 18 17 18 19 17 16 15 15 8 6 5 7 10 13 10 9 9 10 10 9 10
24 31 26 27 29 29 23 29 29 26 29 30 30 28 28 27 25 24 22 20 16 16 16 15 17 15 14 10 10 12 8 4 2 5 9 10 8 8 8 8 9 8 9
28 30 30 28 27 28 35 35 32 30 29 30 29 28 27 24 23 21 19 17 16 13 14 16 14 11 11 8 3 7 4 2 2 4 7 8 7 6 7 7 7 6 6
27 29 31 30 30 32 41 43 39 35 32 31 31 28 23 19 17 17 16 15 14 12 12 12 11 9 8 7 5 5 4 1 2 3 4 9 10 8 7 8 8 7 4
29 34 33 34 34 39 38 40 40 35 32 31 28 24 23 20 14 16 15 13 11 10 11 10 7 6 9 10 5 2 4 3 0 1 6 8 8 7 6 8 8 7 7
32 34 36 37 36 41 44 46 45 42 36 30 29 24 21 17 13 14 14 11 9 9 9 8 9 8 8 6 4 2 1 2 0 5 8 9 8 7 5 7 9 11 10
33 34 36 34 38 44 40 39 47 42 30 27 31 24 22 17 16 14 12 14 13 13 11 13 12 7 6 5 5 5 4 2 3 6 9 10 11 10 7 5 8 12 12
23 31 36 40 42 41 39 38 42 35 32 34 34 29 24 19 19 17 16 17 15 16 15 16 13 12 10 9 8 9 7 7 8 9 9 11 11 12 12 9 4 10 15
27 30 35 40 40 37 35 41 43 34 31 35 38 29 29 22 17 20 21 19 20 19 18 20 18 15 12 12 13 12 12 11 11 11 13 14 14 14 14 12 11 10 11
26 29 30 32 39 40 36 34 40 38 33 36 30 27 28 25 24 22 24 20 22 21 20 21 17 15 16 17 17 15 15 14 12 13 14 14 13 15 14 13 15 14 14
26 26 32 33 35 37 33 38 43 39 23 33 33 28 23 23 25 31 25 26 25 21 20 21 20 21 22 20 19 19 15 15 15 15 17 17 16 15 16 16 14 17 17
31 28 31 34 37 35 37 39 38 35 26 24 29 26 24 24 23 25 28 27 26 22 22 23 24 23 23 24 22 21 16 15 15 17 19 20 18 17 18 18 17 20 17
27 30 32 35 39 43 43 41 36 27 20 25 27 30 28 27 29 29 25 26 28 25 25 26 26 24 23 22 23 19 9 10 9 10 9 17 20 19 19 21 21 20 20
29 29 31 34 37 36 36 39 35 29 27 26 25 30 28 31 31 30 25 24 27 27 23 28 26 26 22 22 23 24 22 15 9 6 8 11 14 22 23 21 21 20 24
31 31 31 32 33 34 35 33 32 31 30 25 24 28 30 31 30 28 30 28 24 25 28 27 27 27 25 27 24 27 22 18 19 13 13 13 12 15 22 23 20 21 25
33 35 34 36 36 34 36 32 34 34 32 31 29 28 34 30 29 25 25 31 27 30 31 26 24 27 27 28 29 25 24 22 20 15 19 21 21 19 13 16 18 21 26

GFSSE_850_spd_054.txt.gz
Wind_Speed
25 33 32 32 34 33 32 30 29 29 27 24 24 26 26 26 26 24 23 25 26 28 28 30 29 27 28 29 29 28 26 22 22 21 22 23 23 23 23 23 23 21 20
31 30 32 24 30 30 29 29 27 27 27 25 28 30 29 29 27 26 27 29 29 29 30 30 30 30 28 27 27 27 27 24 20 20 22 23 22 21 20 20 21 21 21
30 26 19 16 23 29 29 28 27 25 24 28 31 32 31 30 30 31 31 30 30 30 31 32 30 29 26 22 22 23 24 23 20 21 21 22 22 21 19 18 18 19 21
13 21 24 22 32 23 27 27 26 26 26 30 32 32 33 33 33 34 32 31 31 32 32 30 30 28 25 23 22 22 20 20 18 19 20 20 20 19 18 17 16 15 17
18 26 31 30 35 28 28 29 28 27 27 30 32 33 33 35 35 35 34 32 32 31 30 31 30 27 22 20 20 21 20 19 18 18 19 18 19 18 17 15 17 17 17
22 32 33 22 26 42 39 34 30 27 29 31 33 35 34 34 36 34 33 32 31 30 31 31 29 25 20 18 19 18 17 15 20 18 17 17 18 17 17 16 15 17 18
21 26 29 23 30 34 40 33 33 29 30 33 34 35 34 34 34 34 33 31 30 29 30 30 28 22 18 18 18 16 16 16 19 20 18 17 17 16 16 15 15 14 14
12 29 26 25 28 30 21 22 22 25 30 33 35 35 36 34 33 32 32 30 29 27 28 28 27 24 21 17 14 12 13 13 16 19 19 16 16 15 14 14 14 14 14
17 25 27 27 31 32 21 24 15 23 29 33 35 35 35 33 32 31 30 29 27 25 25 24 25 23 24 19 12 10 10 11 13 15 16 14 13 12 12 12 12 12 12
25 29 30 29 24 19 21 29 30 25 29 32 34 34 34 31 31 31 29 26 24 23 23 22 22 21 20 14 12 11 11 9 10 11 13 14 13 13 13 13 12 11 12
26 29 23 26 27 33 31 38 32 25 27 31 32 33 33 31 30 29 27 23 21 22 22 21 21 21 19 12 9 7 7 7 8 10 12 11 11 11 11 9 8 9 9
18 25 32 32 36 36 28 36 38 34 32 32 32 33 34 32 30 29 26 23 20 20 21 21 20 17 15 11 7 5 3 5 7 9 10 12 11 10 9 8 8 8 8
26 35 34 34 33 31 37 36 38 37 37 33 32 32 33 32 31 28 25 21 18 17 18 18 14 12 12 9 5 4 3 5 5 6 9 9 9 8 7 8 6 5 5
29 29 30 33 27 31 36 40 40 40 37 36 34 32 33 31 30 24 20 20 15 14 17 15 11 9 9 6 2 1 1 1 3 4 6 7 9 8 5 3 3 5 6
31 31 28 27 29 34 42 40 39 40 38 38 36 33 30 30 27 21 20 14 14 15 14 11 9 6 5 6 6 4 2 2 2 2 5 6 7 7 5 6 6 5 7
28 27 31 31 31 38 41 39 38 38 38 37 36 30 25 26 21 18 15 14 14 12 12 10 8 3 6 9 8 7 5 3 0 2 5 6 7 7 6 4 7 7 9
31 29 33 30 34 41 42 39 41 40 40 38 32 28 27 21 16 15 13 15 15 14 13 10 9 8 9 9 8 8 6 5 4 5 6 6 12 10 8 6 8 9 11
25 28 32 34 35 40 45 43 41 42 36 36 33 30 30 24 19 16 16 18 16 17 16 12 13 12 11 10 9 11 8 8 7 6 8 7 12 10 11 10 9 7 12
20 25 31 33 36 41 42 41 38 39 39 35 31 31 27 22 19 20 16 14 15 15 16 16 17 15 14 14 13 12 13 12 9 10 10 10 10 10 10 11 11 11 12
20 21 27 31 35 36 39 41 42 41 34 33 34 33 30 25 21 21 19 18 16 18 18 21 20 17 18 17 16 16 16 15 14 13 13 14 13 14 12 10 11 11 12
19 21 26 32 33 35 37 45 43 43 32 33 35 36 26 23 21 21 21 22 20 22 22 22 21 22 22 20 19 21 20 20 20 17 15 16 16 18 18 15 15 15 15
24 23 30 36 36 37 42 43 43 40 39 37 34 37 35 29 26 26 28 29 25 25 24 25 25 25 23 23 25 25 21 23 24 23 21 19 19 21 21 19 19 20 19
29 29 30 36 38 41 37 39 40 41 33 37 40 37 36 31 30 25 24 26 28 28 29 27 27 27 28 28 29 25 11 18 19 21 21 18 20 24 23 23 23 22 22
30 30 32 33 36 41 36 35 42 46 40 36 35 36 37 36 32 26 25 26 27 28 31 30 29 31 30 29 31 30 31 21 10 7 16 18 20 22 23 25 26 27 25
30 31 31 33 39 40 38 44 46 47 39 32 32 33 34 35 33 28 29 30 26 27 30 31 31 33 32 29 30 33 30 27 23 18 16 22 18 19 22 24 27 29 27
33 33 34 34 37 42 47 45 44 39 35 33 33 31 29 32 33 30 29 29 27 29 30 30 29 30 26 29 32 33 30 30 27 22 22 24 22 25 26 22 22 27 26

GFSSE_850_spd_057.txt.gz
Wind_Speed
21 30 32 34 35 33 30 30 31 25 21 24 28 32 33 29 27 25 25 26 26 25 24 24 23 23 23 25 24 23 22 21 21 23 26 25 24 23 22 21 21 22 22
26 37 35 34 30 26 22 23 24 22 19 23 28 31 31 29 28 27 29 29 28 29 28 28 27 26 26 26 24 22 20 19 22 22 23 23 24 23 22 22 23 22 21
31 36 36 36 38 30 19 17 22 22 22 24 28 29 30 31 30 32 32 31 30 29 29 27 26 25 26 26 25 22 22 20 19 20 22 22 21 20 20 20 23 21 21
34 32 34 36 31 31 11 17 22 23 23 26 29 29 31 32 33 33 32 31 31 30 28 26 24 25 26 25 24 22 20 19 19 20 20 21 21 20 19 18 19 21 21
30 32 30 31 23 28 30 36 31 24 24 28 30 31 33 34 34 34 33 33 33 31 28 26 27 27 26 27 25 24 20 19 18 18 19 19 20 19 20 20 20 22 20
26 23 29 34 31 27 37 36 29 26 28 29 31 33 35 35 35 34 34 34 33 31 29 24 24 24 26 24 22 23 24 20 18 18 19 19 19 19 18 17 18 16 18
33 26 28 27 28 33 36 36 37 36 34 30 31 34 36 36 36 36 34 33 32 31 28 21 21 21 22 20 21 20 20 21 21 20 19 19 19 18 17 16 16 16 17
28 33 36 32 26 28 28 34 34 32 30 30 30 34 37 36 36 35 33 33 33 31 26 21 20 21 19 17 17 17 18 18 19 20 18 17 16 16 16 16 15 15 15
23 28 35 30 33 32 24 16 27 27 30 31 31 34 36 35 36 35 34 33 32 30 25 20 22 22 18 15 14 14 15 15 16 18 17 16 15 14 14 14 13 14 13
18 23 29 35 39 38 30 30 34 29 28 33 32 34 35 35 34 34 33 31 30 28 25 20 20 19 16 15 14 13 13 14 14 15 15 15 14 13 13 13 13 13 13
21 22 30 28 39 43 30 30 39 36 34 35 34 35 35 35 34 33 31 29 28 27 25 21 18 18 14 11 11 10 10 11 11 13 15 15 14 13 12 12 11 11 10
15 15 29 28 25 23 36 36 37 33 32 34 35 35 35 35 33 31 29 28 27 25 23 22 16 13 11 9 8 7 7 9 10 12 14 14 13 11 8 8 10 10 10
21 27 26 22 22 23 34 44 45 42 37 33 35 36 36 36 33 30 29 28 25 22 24 22 18 14 12 10 8 5 6 7 8 10 12 12 11 11 9 7 7 7 8
33 33 32 28 34 38 39 43 40 39 40 40 36 37 35 35 32 28 25 24 23 21 19 16 14 13 11 8 5 3 4 6 7 7 9 9 9 10 7 3 4 2 7
35 39 39 37 39 41 40 42 44 41 41 40 39 37 36 35 30 26 24 22 20 19 15 13 11 11 8 5 3 1 2 4 5 4 6 6 10 9 7 1 6 1 3
28 32 35 39 33 39 39 40 41 41 43 41 39 36 36 33 29 25 22 20 16 14 13 10 8 6 5 4 4 5 3 3 2 1 4 6 10 7 5 3 3 4 4
28 35 28 26 29 35 35 38 40 40 39 38 37 35 35 31 27 22 21 18 14 12 12 11 9 7 5 6 8 9 7 5 4 3 4 5 8 6 4 3 5 7 8
27 27 25 30 29 36 38 37 36 37 36 36 35 35 32 27 21 20 20 16 14 13 14 11 9 8 7 8 8 9 9 8 7 6 6 6 7 6 6 5 6 6 8
19 25 28 31 33 37 36 40 40 39 38 36 35 31 28 23 26 22 19 18 13 15 18 16 12 11 12 12 11 11 10 9 9 11 9 7 8 8 8 8 8 7 7
13 17 24 32 39 41 44 40 38 34 39 38 34 31 24 24 24 21 21 16 14 16 17 16 15 16 16 15 13 13 14 14 14 15 12 11 12 12 12 11 11 10 10
15 14 16 26 33 38 40 41 40 38 40 36 35 30 30 27 28 25 17 17 18 17 16 17 17 21 21 19 16 17 18 19 21 20 19 16 16 15 16 15 14 14 13
16 20 20 22 29 35 41 39 36 38 38 40 39 36 30 30 26 21 18 19 19 19 18 20 21 24 25 23 22 21 20 24 26 26 24 22 22 20 20 19 18 18 17
22 22 22 23 27 35 38 41 39 39 40 41 39 42 38 31 27 23 20 22 24 25 24 24 24 26 29 28 27 23 10 16 19 22 26 26 24 21 21 22 22 21 22
22 21 21 24 28 32 35 41 45 42 43 41 45 44 40 37 32 31 26 24 25 25 27 29 28 29 30 31 30 30 32 29 12 9 17 18 19 18 22 25 24 24 25
19 20 21 25 29 29 32 36 38 45 47 45 42 41 44 40 38 35 32 30 29 28 29 29 29 30 31 34 34 34 32 33 30 24 24 23 23 20 19 21 24 26 28
21 23 26 30 33 35 38 40 38 43 45 47 45 42 45 41 39 39 38 35 32 31 33 32 28 27 30 28 37 36 34 35 35 29 31 30 24 25 24 23 25 26 25

GFSSE_850_spd_060.txt.gz
Wind_Speed
27 32 33 32 30 32 23 27 25 22 22 28 29 28 26 26 27 27 25 24 24 23 21 20 20 22 24 24 24 23 24 26 27 26 24 25 25 23 22 23 26 27 25
33 36 37 34 31 31 33 29 25 18 29 31 30 28 28 26 26 25 25 25 24 23 23 23 24 25 25 24 23 22 22 23 24 26 27 26 26 24 23 23 22 22 22
29 33 34 35 35 32 30 29 26 24 31 33 31 28 27 26 27 27 28 27 26 26 26 27 28 28 27 25 23 22 20 21 21 22 23 25 23 23 23 23 24 23 22
31 33 34 33 34 35 34 29 29 33 31 24 25 26 26 27 29 30 30 29 28 28 27 28 30 29 28 27 24 23 22 21 21 21 22 23 22 20 20 21 22 21 21
29 37 36 33 32 33 33 32 29 28 28 24 27 27 26 29 32 33 31 31 29 27 28 28 29 28 29 27 25 23 22 21 20 20 21 21 23 22 22 22 21 20 22
34 40 40 38 36 30 20 22 27 26 26 27 30 28 30 32 34 33 32 31 29 29 31 30 30 29 28 28 27 23 22 21 20 20 21 22 22 20 20 19 20 20 19
27 34 35 38 38 29 24 29 34 29 31 32 27 30 32 33 33 34 34 31 29 31 30 30 29 27 26 25 25 25 24 21 20 20 20 20 21 19 19 19 18 18 18
28 34 31 33 36 27 25 31 37 34 31 29 31 33 33 35 35 35 34 32 29 28 29 28 27 25 24 22 22 22 21 19 18 18 19 20 19 18 18 18 17 17 17
35 36 33 28 28 32 35 37 40 35 29 29 28 36 36 36 36 34 33 30 27 26 26 26 25 23 21 19 19 19 18 17 17 18 19 19 17 17 16 16 16 16 16
17 28 29 33 36 36 37 40 41 37 33 31 33 38 37 36 33 32 33 30 26 25 26 25 23 19 18 17 16 16 17 17 18 18 18 17 16 16 16 16 16 16 15
18 21 26 33 37 38 36 32 36 38 35 32 36 38 38 35 33 34 33 30 26 24 25 24 22 20 18 16 14 14 15 16 18 17 17 16 15 14 13 14 15 13 12
15 19 26 35 35 41 32 22 35 42 45 36 36 38 38 36 33 33 32 29 25 22 23 22 16 14 13 13 12 12 12 15 16 15 16 16 15 11 9 10 11 12 11
13 10 21 22 35 28 20 39 44 44 39 39 42 40 38 37 35 33 32 30 25 22 21 21 16 12 11 10 10 9 10 13 13 13 14 14 13 10 8 7 8 9 12
14 14 16 27 18 21 37 44 42 43 38 36 36 39 39 38 35 33 31 29 27 23 20 18 17 15 13 11 8 6 7 9 10 11 11 11 11 10 8 7 5 6 7
14 26 30 29 25 31 45 47 45 43 43 41 35 37 38 36 35 33 31 28 26 24 19 17 14 13 10 8 7 5 4 6 6 7 8 8 9 7 7 4 4 2 2
21 27 30 29 26 39 46 44 46 44 44 41 38 35 37 35 33 32 28 24 24 23 19 13 11 11 8 7 5 4 3 3 3 3 5 5 8 7 5 2 2 1 3
27 29 18 28 31 38 41 41 45 45 43 40 40 37 36 34 32 31 28 23 22 19 15 14 12 9 6 6 5 5 4 4 3 1 1 2 4 4 4 3 3 2 5
23 21 26 33 34 39 37 40 40 39 38 40 39 37 35 34 31 27 25 20 19 17 13 11 9 8 6 4 4 4 5 6 6 5 4 2 3 3 3 2 2 4 6
19 25 28 28 24 33 34 31 35 37 35 37 36 35 38 36 29 25 21 19 18 15 12 12 9 7 6 6 5 6 8 9 9 9 8 6 6 6 5 4 4 4 4
14 24 29 24 28 31 28 34 33 33 34 36 38 41 39 33 25 23 21 18 16 16 15 11 11 11 9 9 9 11 12 14 14 14 12 13 12 10 9 9 8 7 7
13 16 19 25 30 31 33 38 36 37 37 36 38 38 34 28 29 24 22 20 16 16 11 9 13 14 13 14 15 16 18 19 20 20 18 17 18 14 13 12 11 12 12
13 13 15 22 30 38 37 36 38 34 36 36 35 34 32 27 21 23 21 18 19 18 16 17 15 16 16 19 21 21 21 22 25 24 24 23 22 20 18 16 15 16 15
19 19 18 19 27 39 39 42 39 36 38 41 34 36 38 33 26 23 23 23 20 17 16 17 18 18 19 20 25 23 10 15 17 18 21 23 25 24 22 20 18 19 19
17 20 21 22 27 34 43 42 44 41 41 43 43 38 35 33 27 28 28 20 19 19 19 21 22 23 23 24 27 30 31 32 19 12 18 19 20 22 21 19 15 21 21
14 20 22 24 25 32 39 40 47 46 41 36 41 40 40 42 35 30 28 27 25 23 22 23 23 26 27 29 30 32 33 33 35 35 26 23 22 22 21 18 18 19 21
15 17 22 26 30 32 35 37 43 49 46 43 43 41 45 40 45 38 37 34 33 32 29 28 30 30 32 29 28 28 30 29 34 36 34 30 27 23 25 25 23 20 21

GFSSE_850_spd_063.txt.gz
Wind_Speed
32 33 33 33 28 25 33 23 32 32 30 30 30 31 28 27 25 23 23 21 21 21 20 20 22 23 24 24 24 28 29 27 26 26 24 24 25 26 28 27 26 26 26
32 33 35 35 37 40 27 30 33 29 27 29 31 28 28 27 26 25 23 22 21 20 20 21 22 22 24 26 27 27 28 28 28 26 25 24 24 24 25 24 24 24 23
31 38 41 40 31 29 32 33 32 29 30 32 33 29 29 27 26 24 23 22 21 21 21 22 24 25 24 25 24 24 24 22 24 27 26 23 22 24 23 22 21 22 20
29 33 37 32 30 31 32 33 31 24 26 32 30 29 29 27 26 25 25 24 22 22 24 26 26 25 25 24 24 24 22 21 20 22 21 21 19 20 21 22 20 19 18
26 28 29 34 35 34 35 36 29 24 26 31 31 32 29 28 26 26 25 25 25 26 28 28 27 27 26 25 24 23 23 22 21 21 22 23 23 19 20 20 22 21 20
31 33 33 30 29 30 29 31 31 32 31 33 33 31 29 28 27 27 27 27 27 27 27 28 28 28 26 25 24 23 22 21 21 22 23 22 21 20 20 20 20 21 20
25 37 36 36 28 37 27 34 36 34 35 34 33 30 29 29 29 30 29 28 28 29 30 29 29 29 27 26 25 24 23 22 22 23 22 21 20 21 20 19 19 19 19
27 35 35 33 36 35 31 30 34 34 33 33 31 31 30 31 30 30 29 29 31 32 31 29 29 27 27 27 24 23 20 20 21 22 21 20 21 20 18 19 19 19 18
25 33 36 36 37 34 26 30 30 32 35 35 32 34 34 34 31 30 29 30 31 32 30 28 27 25 24 24 22 21 20 20 22 22 20 19 19 19 18 18 18 18 17
22 30 35 39 41 37 29 28 34 34 35 36 35 36 37 35 34 31 30 29 30 30 28 27 25 22 22 20 20 20 20 21 22 21 18 18 17 17 17 17 17 16 16
15 18 34 38 41 41 35 35 39 40 37 33 34 35 36 38 34 32 30 29 28 28 27 25 23 22 21 19 18 19 20 20 20 19 18 16 15 15 15 16 15 14 14
12 13 18 32 41 41 39 42 43 40 39 36 32 37 39 37 36 34 29 27 26 27 25 23 21 20 18 19 18 18 18 18 18 18 17 15 13 12 12 13 13 12 12
9 14 31 26 47 42 46 48 43 37 40 37 37 35 34 36 37 34 30 27 27 26 27 25 21 18 16 16 16 16 17 15 16 16 15 15 12 10 10 10 11 11 11
10 11 23 28 20 30 30 27 30 38 41 38 35 35 38 38 39 35 32 29 28 27 25 23 21 18 16 15 14 14 14 13 12 13 13 12 11 9 8 8 9 9 8
6 9 11 21 27 24 21 28 38 45 42 39 37 39 39 38 37 35 31 29 27 26 22 20 20 18 16 14 13 12 12 10 9 9 10 9 8 6 7 5 6 4 4
8 20 21 20 23 23 23 31 41 42 43 43 36 36 37 36 37 35 32 29 27 23 21 20 18 15 13 11 11 10 10 9 7 6 6 6 7 5 5 3 4 2 2
15 31 26 23 22 23 34 37 44 41 39 43 37 37 38 35 35 34 32 29 26 21 17 17 18 15 12 11 10 8 8 7 6 5 3 3 4 4 4 2 2 1 4
12 25 31 21 27 28 36 37 41 39 39 44 38 37 37 33 34 35 33 31 27 24 20 18 16 13 10 9 8 8 7 7 7 6 4 3 2 1 2 1 0 2 5
20 17 24 22 29 36 38 40 40 38 38 40 44 37 38 37 36 33 31 30 27 24 19 16 15 12 11 10 8 7 6 7 8 9 8 7 6 5 4 3 3 3 5
18 22 18 19 29 32 37 31 41 39 38 37 41 46 36 38 34 32 29 26 26 21 20 19 15 13 11 9 8 8 8 9 13 13 12 11 11 9 8 7 6 6 6
14 20 21 26 29 28 39 34 41 44 42 37 40 38 36 38 34 29 28 26 23 20 17 18 14 13 12 12 12 12 13 15 16 16 17 17 15 14 13 12 11 9 9
19 20 24 26 23 28 37 33 39 43 42 36 39 40 38 37 34 31 29 25 24 18 19 16 17 14 15 14 15 15 13 17 20 20 21 22 21 20 19 18 16 14 13
20 22 24 24 26 29 31 39 40 34 32 37 39 37 45 41 38 35 29 26 23 19 18 18 17 15 16 15 18 17 8 10 12 15 15 18 22 24 23 21 20 19 16
22 20 20 22 25 30 34 35 43 41 43 41 41 44 44 40 37 34 28 26 21 22 20 18 21 20 20 20 20 23 25 25 17 12 17 18 18 20 23 22 21 20 18
20 23 23 22 24 31 36 38 42 46 42 42 40 38 39 38 36 37 35 31 26 31 23 21 20 21 21 23 23 25 26 29 31 31 23 23 27 21 15 15 22 23 19
17 22 24 26 27 30 38 41 43 47 44 43 42 45 41 40 42 38 35 34 27 28 26 24 23 23 24 26 28 29 30 29 29 30 31 28 28 25 18 20 21 23 23

GFSSE_850_spd_069.txt.gz
Wind_Speed
4 16 24 25 27 27 28 28 28 28 28 25 23 23 23 22 21 21 20 19 18 19 20 21 21 22 21 22 22 22 22 23 25 25 25 25 25 25 24 23 23 23 24
7 16 22 25 27 29 30 31 30 30 29 27 25 24 24 23 22 21 20 19 20 21 21 21 21 20 21 22 22 23 24 23 23 23 23 25 24 24 23 24 24 24 25
9 13 23 27 27 27 32 33 31 30 31 29 27 26 25 24 23 22 22 20 20 20 20 18 18 18 21 21 22 22 23 23 24 25 24 22 21 20 20 21 21 20 20
9 13 20 29 28 27 32 33 32 33 32 30 29 28 26 24 23 23 23 21 19 17 19 19 21 22 23 24 23 24 25 25 26 25 18 18 18 18 17 16 14 14 14
8 15 19 29 27 27 31 33 34 35 34 31 30 29 27 26 25 23 22 20 18 17 20 22 23 24 24 23 23 23 27 29 24 19 17 16 16 15 13 13 13 13 13
8 15 25 29 29 25 26 30 34 35 35 33 31 29 28 27 25 23 21 21 19 20 21 22 24 24 24 23 22 25 26 26 20 17 18 18 16 14 12 11 12 12 13
10 17 22 22 26 26 29 25 28 38 36 35 32 32 29 26 25 23 22 21 20 21 22 23 24 24 23 23 24 27 28 22 16 18 18 17 19 18 17 16 17 16 16
15 17 21 20 31 26 29 14 38 36 37 36 34 33 31 27 25 22 22 22 22 22 23 25 25 25 24 24 26 28 27 22 17 17 17 18 20 20 19 19 18 18 18
12 19 22 20 33 32 32 27 17 33 36 37 35 33 30 29 26 24 23 22 23 24 25 25 24 24 24 25 26 28 27 21 17 17 17 18 19 19 19 19 19 19 18
14 21 23 24 23 29 27 20 19 21 35 35 35 34 32 29 28 27 25 23 25 26 26 26 25 25 24 24 23 27 29 22 17 16 15 18 19 18 17 17 17 16 17
14 17 25 24 21 23 22 23 24 23 29 35 36 33 28 28 29 28 25 25 27 27 27 27 25 24 23 23 25 25 20 15 15 14 16 19 18 17 16 15 14 14 14
15 17 19 25 23 22 25 21 23 27 33 33 34 32 29 29 30 29 25 29 29 27 26 25 23 22 22 26 24 20 15 14 13 13 16 17 15 15 14 14 13 12 12
15 17 20 21 24 20 26 25 26 25 33 37 36 34 32 31 30 29 32 32 30 27 26 24 23 19 16 17 12 9 15 13 12 12 15 15 15 14 13 12 12 11 11
9 9 12 15 21 27 26 33 25 34 33 30 35 30 33 33 28 30 36 34 32 29 27 25 20 15 15 14 12 14 14 12 12 12 14 14 13 14 12 12 12 11 10
5 6 12 16 23 27 29 35 39 30 35 41 34 39 40 32 30 34 33 33 31 23 24 21 14 16 15 14 14 13 13 13 12 11 12 13 12 12 12 10 11 10 9
7 8 9 11 16 22 26 27 37 33 34 41 45 45 37 34 30 28 31 27 25 22 21 18 16 16 15 14 15 14 13 13 12 11 10 11 10 10 9 5 5 5 5
9 9 8 7 7 7 22 36 42 30 46 46 40 42 34 31 34 27 28 29 25 24 21 19 19 16 15 14 13 14 13 13 12 12 10 8 9 9 10 6 5 4 2
10 10 10 9 6 13 24 33 34 45 47 43 46 37 35 35 36 34 27 25 28 22 22 20 19 17 15 15 14 13 12 12 12 12 11 9 9 9 8 10 9 8 7
11 11 16 14 11 11 16 20 22 25 40 45 39 39 34 38 40 35 27 22 24 23 22 21 19 17 16 15 14 13 12 12 12 11 12 14 13 12 11 9 9 11 12
13 13 17 16 10 7 14 21 23 24 32 39 42 40 36 35 37 34 30 29 28 22 22 20 19 17 15 14 14 13 13 13 12 13 14 13 14 15 15 15 14 14 14
16 17 18 20 13 13 17 25 27 32 36 37 42 39 38 30 37 35 28 26 25 25 20 21 20 19 16 15 13 12 12 16 15 14 14 14 14 15 16 17 17 14 13
16 17 20 21 22 19 21 26 25 31 37 39 42 42 30 28 31 32 30 32 29 29 23 24 22 20 17 21 16 15 12 11 17 19 17 17 18 17 18 20 20 18 17
20 22 24 22 19 21 24 25 27 28 35 40 46 40 34 30 33 38 32 40 35 32 25 24 23 21 21 20 20 11 8 10 16 14 17 22 20 21 21 21 23 22 24
22 25 24 26 21 24 28 27 31 31 34 44 50 44 35 36 40 41 40 33 32 30 22 23 25 24 21 19 16 20 19 14 11 7 13 15 20 22 22 24 27 25 22
22 27 26 28 28 26 28 28 37 35 30 35 48 45 37 36 36 40 41 36 37 31 31 30 28 25 21 19 20 16 13 15 16 16 18 13 14 17 19 24 27 26 27
20 23 25 27 30 31 33 28 31 36 32 39 40 41 46 44 42 36 37 37 37 35 32 29 26 23 23 20 21 21 19 16 16 18 20 21 20 22 24 24 27 27 29

GFSSE_850_spd_072.txt.gz
Wind_Speed
6 8 8 12 24 24 23 23 24 25 24 22 20 21 21 22 21 21 21 19 19 20 19 19 20 21 21 21 18 16 17 21 23 25 25 24 25 25 23 23 24 25 23
5 9 8 14 24 26 26 25 25 26 26 23 21 22 22 23 22 21 20 19 19 21 21 20 21 23 23 21 20 21 22 25 26 26 26 26 25 23 24 24 25 25 23
5 9 9 17 25 27 27 27 26 26 25 25 23 23 23 23 22 21 20 21 22 21 22 21 21 23 24 25 24 24 24 24 25 24 23 24 22 22 22 23 23 22 21
8 9 10 20 26 28 27 28 27 27 27 25 24 24 24 23 22 20 20 21 21 21 22 21 21 22 23 24 24 25 27 25 18 16 22 21 20 19 18 17 17 17 16
4 10 12 19 26 26 26 26 28 29 28 26 25 25 25 23 22 20 19 19 19 21 21 21 21 24 25 26 28 32 30 26 22 10 14 19 19 16 14 13 14 15 15
7 9 15 17 25 27 25 28 30 31 30 29 28 27 26 25 24 22 19 19 18 21 23 22 26 27 26 27 31 32 26 22 24 17 13 17 20 17 14 13 14 14 14
7 10 19 17 20 25 25 27 31 28 32 33 33 30 28 26 25 22 21 19 19 20 22 23 26 27 26 28 31 32 26 21 15 14 15 16 19 16 14 15 15 15 15
10 15 21 19 18 21 24 26 16 19 16 33 35 32 30 27 25 22 22 21 21 20 22 25 26 26 25 29 31 28 25 23 15 12 16 19 18 17 17 18 17 17 17
9 15 18 20 19 22 29 30 21 18 20 28 34 32 30 27 24 23 23 21 21 20 24 25 26 26 27 32 31 28 22 20 14 13 17 20 19 19 19 19 19 18 18
14 13 18 18 18 23 27 28 31 21 20 38 36 33 31 28 25 24 22 21 21 24 25 26 27 27 30 31 31 26 23 15 11 13 16 19 19 19 19 18 19 18 17
11 12 15 17 18 17 22 25 23 24 16 16 41 34 33 28 26 25 23 23 25 25 26 26 27 28 29 30 29 26 21 17 16 10 16 18 18 18 17 17 17 16 15
13 14 16 19 19 19 18 22 24 23 7 20 37 38 35 32 29 26 24 25 26 26 26 27 27 28 28 32 27 23 21 15 11 10 17 18 16 15 16 16 15 14 14
9 14 16 16 18 16 16 18 21 20 20 26 38 38 35 33 32 27 28 28 29 28 28 27 27 28 33 29 22 19 19 12 9 12 16 15 14 15 15 15 14 14 13
11 7 11 15 15 19 18 23 22 25 28 31 38 38 36 34 32 30 31 31 31 30 29 27 26 23 30 21 12 19 17 12 9 12 16 15 15 14 14 14 13 12 12
6 8 10 10 12 16 20 23 25 25 30 46 44 38 32 34 33 28 33 33 31 30 27 26 23 17 19 16 15 22 13 12 9 13 15 14 16 15 14 14 14 12 11
8 10 9 11 15 18 20 23 25 30 29 43 43 38 38 32 33 31 33 34 30 29 30 24 21 19 17 16 17 20 14 12 8 9 13 13 13 13 12 12 12 11 10
13 15 12 7 5 9 17 24 27 31 35 40 35 40 33 37 34 32 35 34 27 26 27 22 20 20 18 17 19 18 16 15 10 8 8 11 12 12 10 8 8 7 5
11 13 11 3 2 8 12 20 31 44 42 36 38 32 39 32 31 34 35 32 27 24 23 21 21 20 19 17 17 18 17 17 16 11 9 8 8 10 10 10 8 6 6
11 13 11 7 7 5 6 21 30 30 30 26 39 35 32 34 32 32 34 32 30 29 27 23 20 20 19 19 17 16 16 18 19 18 12 10 9 9 10 10 10 10 9
15 16 12 9 8 9 15 22 27 30 31 30 38 32 38 43 31 35 31 30 32 31 27 21 24 21 20 19 16 18 17 16 15 17 20 21 15 14 13 11 12 13 12
13 15 13 17 11 13 15 16 22 21 27 40 37 40 38 36 35 34 36 32 30 26 26 25 24 21 19 20 17 17 16 18 17 17 20 20 24 21 22 18 18 17 18
17 19 15 20 14 13 16 20 21 21 30 36 42 36 39 37 39 37 36 34 35 34 31 26 24 24 20 23 22 19 15 18 23 24 22 22 21 20 20 24 24 23 21
16 21 21 24 19 14 18 19 22 26 32 42 39 43 41 38 39 41 37 37 33 31 31 29 27 28 29 27 27 16 10 13 14 21 28 25 24 23 23 22 23 26 24
16 21 20 21 20 20 22 25 26 30 35 39 48 42 40 40 37 29 34 35 35 34 30 30 29 30 28 25 26 25 17 10 8 4 18 23 28 26 25 26 26 26 26
19 24 25 24 23 21 28 24 27 28 31 39 49 46 46 39 39 35 34 37 39 38 34 31 28 30 28 26 22 22 22 23 22 18 17 17 20 23 25 25 26 28 30
20 25 27 24 26 23 30 28 28 28 33 40 43 53 45 41 39 40 40 39 40 37 35 34 31 31 25 20 23 24 25 26 22 18 19 18 18 21 23 27 27 28 26

GFSSE_850_spd_075.txt.gz
Wind_Speed
1 5 5 3 12 21 21 21 23 23 22 21 19 20 21 20 19 18 17 17 18 18 18 21 22 23 22 20 19 18 17 21 23 23 24 24 23 23 23 23 24 25 23
2 5 5 2 15 22 23 23 24 24 23 20 18 21 22 22 21 19 19 19 19 19 20 22 22 22 22 20 18 20 22 24 26 27 27 25 22 23 24 25 25 24 24
3 5 4 5 16 23 25 25 25 24 22 20 20 21 22 23 23 22 21 21 20 20 20 20 22 22 22 21 23 25 26 27 27 27 29 26 25 26 25 23 24 25 23
1 6 7 8 18 25 27 26 25 25 23 22 22 22 23 23 22 22 21 21 22 23 23 21 24 25 25 25 25 25 23 23 23 25 26 26 24 22 21 20 20 19 18
4 8 11 9 18 26 28 27 25 26 25 23 22 23 24 23 22 22 22 24 24 23 24 24 28 29 28 28 28 28 24 20 17 22 25 25 24 19 18 17 16 15 15
8 11 12 10 18 24 27 27 29 26 28 26 25 26 26 24 23 24 24 24 23 23 25 26 28 28 30 34 31 27 23 17 17 17 22 22 21 17 13 15 15 15 15
8 9 13 12 12 21 25 26 27 28 28 24 28 30 27 28 28 25 24 24 23 22 23 30 31 33 37 33 27 21 18 17 14 14 19 22 20 16 16 16 16 15 16
6 11 14 14 14 15 23 27 27 31 32 22 16 31 32 33 30 26 24 22 23 22 27 32 33 35 36 31 28 25 18 13 10 11 17 21 18 17 17 17 16 16 16
5 12 17 16 18 20 22 27 31 29 28 16 43 29 30 32 30 27 24 22 23 23 30 32 33 35 36 32 27 24 17 13 12 18 20 20 18 18 18 18 18 17 17
11 8 16 17 19 21 24 27 28 25 29 38 19 21 29 33 29 25 23 21 21 25 31 31 32 34 35 31 24 21 17 9 8 17 19 19 18 18 18 18 18 17 16
10 11 10 22 21 20 21 24 23 19 16 19 16 30 36 34 30 26 23 21 23 28 29 30 31 36 35 29 29 21 14 7 12 16 19 18 19 18 18 17 17 16 15
8 11 13 14 21 18 17 16 22 21 17 15 23 32 34 35 31 26 24 23 24 29 29 30 33 37 35 32 27 19 14 10 8 11 18 18 18 18 18 17 16 15 14
15 17 13 14 15 21 21 18 21 24 21 15 15 31 43 37 32 29 29 28 30 27 29 31 35 36 34 31 24 21 17 11 6 12 17 17 16 17 17 17 16 15 14
12 13 13 12 16 18 19 18 18 22 22 16 17 47 46 39 34 31 31 31 31 32 33 34 35 35 35 28 25 21 16 10 5 15 16 15 16 17 16 16 15 15 14
14 11 11 9 12 17 20 19 18 25 25 20 23 41 43 39 37 33 31 31 31 33 34 34 34 39 29 28 28 15 14 10 6 14 15 15 16 16 16 16 15 14 13
12 11 9 10 11 14 18 20 21 22 21 26 31 45 42 39 37 32 31 31 33 32 32 32 36 35 24 27 28 16 14 10 7 11 15 15 15 15 15 15 14 13 12
13 13 10 12 13 15 16 20 23 26 30 35 38 40 37 36 36 37 34 34 33 32 30 28 29 28 20 21 26 12 15 11 10 10 12 13 14 13 14 13 13 12 11
14 14 13 12 11 11 14 21 21 25 30 38 43 45 41 40 37 30 37 36 34 34 30 28 25 23 23 21 31 18 15 14 11 9 10 10 11 12 13 12 12 11 10
14 13 11 11 10 11 12 15 21 24 30 43 45 42 41 38 31 32 41 37 34 35 30 27 28 26 24 21 28 23 21 15 15 14 11 12 10 11 11 10 10 10 10
12 13 12 11 10 10 13 19 30 28 32 45 45 40 41 35 32 33 43 40 35 33 33 28 28 25 23 22 22 22 20 21 16 18 16 14 13 13 12 12 12 14 13
13 16 16 16 14 11 13 18 23 27 42 39 41 43 37 38 35 42 43 42 37 36 34 33 29 28 26 24 22 18 19 19 21 21 21 18 18 18 16 15 15 15 16
14 18 19 20 16 17 20 16 24 28 34 35 34 39 39 40 41 43 44 41 39 36 33 34 33 31 27 25 26 24 20 18 21 21 20 24 24 23 22 20 21 21 20
16 21 21 26 19 18 18 23 21 21 31 35 36 42 40 43 43 36 41 40 35 35 34 35 34 34 32 31 26 20 13 14 23 26 26 24 24 25 27 27 26 26 26
16 21 23 26 23 19 18 21 26 25 28 33 37 38 43 48 42 36 38 35 35 34 37 38 34 34 33 29 32 29 20 9 10 7 21 26 28 29 26 26 28 28 27
16 21 26 25 27 21 23 23 25 26 25 30 39 41 47 44 42 40 40 40 38 36 35 36 36 35 35 32 32 30 27 19 14 12 12 16 17 26 27 28 28 28 29
18 23 24 27 27 26 27 26 25 25 30 33 44 42 45 40 41 40 40 39 38 36 35 34 35 35 32 28 29 28 30 30 23 18 18 23 27 24 24 25 27 30 31

GFSSE_850_spd_078.txt.gz
Wind_Speed
2 1 2 4 15 21 22 25 26 24 22 19 18 18 24 28 30 29 27 23 21 21 21 22 22 23 20 18 17 19 20 23 25 26 26 26 27 27 27 26 26 27 25
4 3 3 3 14 22 24 26 27 25 23 20 20 19 20 25 27 26 23 21 21 21 22 23 23 21 19 18 18 17 20 25 25 24 24 24 23 23 24 23 22 22 23
4 3 1 3 12 23 25 27 28 26 23 19 19 21 22 23 24 23 22 22 21 21 22 23 24 23 20 19 19 21 25 26 25 25 24 26 24 23 24 24 23 21 22
1 2 2 3 10 23 27 28 29 28 24 20 20 22 24 23 23 22 22 21 22 22 23 24 26 25 22 21 23 25 26 26 25 26 26 25 26 23 24 23 23 22 20
3 7 7 6 11 22 28 28 28 28 26 23 22 22 22 24 24 24 24 22 22 23 24 26 28 27 27 27 27 26 24 23 25 25 27 25 23 22 22 19 17 15 15
3 7 8 8 12 21 28 28 27 27 27 26 21 24 25 26 26 25 25 26 24 24 27 29 31 31 31 29 27 25 23 21 23 26 26 24 23 21 16 14 14 14 14
5 6 9 9 10 18 25 27 26 27 26 24 25 23 26 29 28 27 27 27 26 25 29 33 34 33 32 30 27 25 22 19 17 21 23 22 19 17 15 15 15 16 15
6 7 10 11 10 13 20 26 26 30 31 29 32 23 20 24 29 29 28 28 27 26 34 36 37 36 33 28 23 20 20 17 15 17 21 20 20 18 17 16 16 16 15
7 10 13 14 16 17 18 22 31 34 35 32 27 10 5 26 27 29 28 27 26 29 38 39 40 36 31 26 22 21 17 12 11 16 19 21 19 18 17 16 16 16 16
8 8 12 16 18 20 21 25 30 34 25 32 35 28 31 27 26 27 28 25 26 34 40 41 39 34 29 26 23 18 14 10 10 17 18 20 18 17 17 16 17 16 16
10 9 9 12 16 20 22 25 27 28 30 30 36 27 20 32 33 31 27 27 27 36 41 41 38 33 29 25 22 18 14 9 14 18 18 18 18 18 18 17 16 15 14
13 12 12 14 19 22 20 23 25 26 20 27 24 24 23 36 37 32 28 27 30 37 40 42 39 32 27 26 24 19 12 13 15 17 18 18 18 18 17 16 16 15 14
11 13 13 13 16 18 22 19 22 20 22 26 30 32 30 33 40 34 31 28 32 38 40 41 40 31 28 28 24 18 14 13 12 16 18 18 18 18 17 16 15 14 13
14 15 16 18 19 19 20 20 22 23 25 25 26 32 42 33 41 37 34 32 36 38 39 42 42 36 31 24 20 20 15 10 7 15 18 17 17 17 17 16 15 14 13
17 17 17 14 16 19 19 21 22 25 27 23 23 35 47 50 45 41 35 34 36 38 38 44 42 39 33 20 21 19 15 10 7 15 17 16 16 16 16 16 15 14 13
17 15 14 11 12 17 20 22 21 22 27 26 17 18 46 52 47 38 36 36 37 37 39 43 43 40 32 24 24 18 14 10 8 14 15 15 16 16 16 16 15 14 12
17 16 14 12 13 15 18 21 22 23 30 30 22 31 44 48 42 40 38 38 36 36 38 42 42 37 32 25 22 17 15 12 9 12 14 15 15 16 16 15 14 14 12
18 15 15 14 16 16 19 21 23 23 27 31 32 41 45 44 40 38 38 38 37 37 38 41 44 35 36 25 21 18 19 14 11 11 12 14 15 16 16 15 14 12 12
16 15 14 16 13 15 18 21 23 28 27 37 40 43 43 41 40 38 39 40 38 38 39 44 40 34 34 27 21 20 19 16 13 14 14 13 13 13 14 14 14 13 12
18 14 12 14 13 14 12 17 22 24 31 36 41 49 45 44 42 39 39 40 40 42 40 41 40 32 31 27 23 20 18 17 16 14 14 12 13 13 12 13 13 14 13
19 15 11 15 15 14 20 16 22 25 35 47 45 47 46 43 40 36 39 42 43 43 39 37 33 28 29 27 30 20 17 16 16 15 14 14 15 14 14 14 14 14 14
21 14 12 17 15 13 17 21 29 33 34 33 42 46 43 45 43 32 41 43 42 44 39 35 35 34 30 28 32 28 22 17 18 19 18 19 20 18 18 17 17 18 18
23 16 13 19 17 15 17 23 22 22 35 44 50 49 48 45 39 36 43 46 42 43 40 33 37 35 33 31 29 29 17 12 21 24 25 24 23 24 22 22 22 23 22
24 17 17 23 21 19 19 18 20 27 33 37 43 43 44 41 39 38 43 46 41 38 36 34 37 35 33 35 37 31 24 13 15 14 28 28 26 25 25 25 26 26 25
23 21 22 26 24 21 19 21 22 23 26 27 31 39 40 39 36 36 43 43 42 37 38 38 39 35 36 36 36 40 28 19 13 13 8 18 26 28 30 30 28 27 27
24 22 25 30 29 24 22 19 23 22 24 29 32 34 38 41 38 39 38 38 41 41 33 36 31 36 38 35 37 39 36 31 24 18 16 17 19 20 21 22 25 26 26

GFSSE_850_spd_081.txt.gz
Wind_Speed
9 7 9 11 15 20 21 21 21 21 19 22 25 26 27 26 26 26 28 28 27 24 25 26 23 22 20 19 20 21 19 18 22 24 25 25 26 26 27 27 28 27 27
9 7 7 10 15 21 23 23 23 23 20 22 25 26 27 26 25 27 28 26 25 23 23 23 23 23 21 20 19 19 21 23 24 25 26 26 26 26 25 24 25 23 22
9 7 7 8 14 23 24 25 25 24 22 20 21 24 26 25 26 27 26 24 22 22 22 23 24 23 20 19 19 20 23 24 25 24 24 24 23 22 22 20 20 20 21
8 6 6 6 11 21 25 27 27 25 24 22 21 22 27 27 29 28 25 24 23 22 23 24 24 22 20 21 21 20 24 25 25 23 23 25 22 21 22 20 19 20 19
9 6 3 3 8 19 26 28 29 27 24 22 23 25 27 30 30 26 25 25 24 23 24 25 25 24 22 23 24 24 26 25 24 25 26 25 25 21 20 20 19 17 18
7 4 3 4 8 17 26 28 28 26 24 22 23 25 27 26 26 25 26 25 23 23 25 27 27 25 25 27 26 27 26 25 26 24 22 21 21 22 19 15 15 15 15
7 5 6 6 7 14 23 28 27 27 25 23 23 19 22 21 23 25 26 24 23 24 28 29 29 29 28 28 27 25 24 25 24 25 24 23 21 19 15 14 14 15 15
7 6 8 8 8 11 19 25 26 29 29 27 26 25 23 23 19 19 23 24 24 25 29 32 32 31 32 30 27 25 22 21 20 25 24 22 20 17 15 15 15 15 15
8 9 10 10 11 11 13 20 28 31 34 34 32 24 24 27 22 21 23 24 26 27 32 34 34 32 31 29 26 22 20 18 20 20 22 22 19 17 17 15 16 16 16
11 9 9 12 15 15 17 22 29 33 34 39 36 24 24 19 27 22 23 26 24 29 34 35 33 32 30 26 21 20 18 14 14 17 19 22 19 18 17 18 17 16 16
14 10 10 12 13 19 20 23 27 31 34 32 31 29 33 32 23 28 29 27 25 31 37 36 35 31 27 22 21 19 15 14 16 18 17 21 19 19 19 18 17 16 15
16 13 12 12 12 14 18 25 28 30 34 30 32 34 32 26 29 31 29 28 28 35 38 38 34 28 25 25 22 16 13 13 17 17 19 20 20 20 19 18 16 15 14
14 14 13 13 13 16 21 23 27 30 30 31 32 32 29 28 28 40 34 32 29 40 41 39 35 30 27 26 22 16 12 15 17 18 19 20 19 19 18 17 15 14 13
19 15 14 15 14 15 19 23 23 22 25 29 30 31 33 31 39 41 37 35 33 45 45 41 36 30 26 24 21 16 14 14 15 18 18 18 17 17 16 15 14 13 12
22 16 16 15 15 17 19 21 23 24 26 25 33 31 34 37 42 41 41 38 39 47 44 38 33 30 29 26 22 18 16 11 12 17 17 17 15 15 15 14 13 13 12
23 18 17 16 15 17 19 21 24 24 25 27 28 34 36 38 35 45 43 40 40 48 45 41 34 32 30 26 22 19 14 10 12 16 16 15 14 15 14 14 14 13 12
23 20 19 16 14 16 17 21 23 24 23 31 30 35 34 40 43 49 45 40 41 46 46 44 35 32 27 24 23 19 14 10 11 15 15 14 15 15 15 15 14 13 12
25 23 19 15 15 16 16 20 22 24 25 28 36 34 31 43 48 49 44 42 43 46 46 47 41 35 26 24 25 21 17 13 11 14 13 14 15 16 16 15 14 13 12
25 23 18 16 17 18 18 21 22 24 28 30 37 30 33 47 49 48 44 43 44 46 46 49 43 37 28 27 24 19 18 15 12 13 12 13 13 14 15 15 14 13 12
24 22 18 16 17 18 20 21 23 26 26 33 36 27 39 46 49 46 44 43 44 45 47 49 46 36 31 28 23 20 19 15 12 11 12 12 13 13 14 14 15 14 13
26 24 18 14 15 17 17 18 23 24 29 36 39 36 35 42 44 43 42 43 43 44 46 48 47 40 29 27 23 21 20 17 15 12 11 11 13 13 14 15 15 14 14
29 23 18 14 16 17 17 16 22 25 30 33 37 39 42 42 42 40 41 42 43 44 45 47 49 44 33 28 28 28 21 19 19 16 15 14 14 15 16 16 16 16 16
31 24 18 14 19 18 17 17 15 22 24 35 35 40 44 44 42 39 37 41 44 46 47 47 48 43 37 32 30 24 16 11 22 21 21 19 19 20 21 20 19 19 19
32 24 18 15 20 18 16 20 17 22 30 30 43 42 47 46 42 41 38 41 42 44 43 44 44 40 35 37 35 35 25 14 14 12 25 23 25 26 25 24 24 22 22
32 26 19 18 22 21 19 19 22 23 23 28 29 42 47 45 42 41 37 39 42 44 43 40 39 38 36 35 36 36 33 20 18 17 16 19 31 32 29 27 25 25 26
31 26 21 22 24 22 19 19 20 23 22 24 31 39 49 45 43 43 36 36 42 41 44 40 35 38 38 37 37 37 38 31 25 19 17 17 15 16 19 22 22 21 23

GFSSE_850_spd_084.txt.gz
Wind_Speed
15 11 10 11 13 14 18 18 18 19 20 22 23 23 24 24 23 23 25 24 23 24 25 25 24 23 20 17 17 19 20 19 21 22 23 23 23 24 25 25 25 25 25
13 11 11 11 13 16 19 19 19 20 22 24 24 26 26 26 26 26 28 25 25 25 25 24 22 21 19 17 22 21 16 20 23 24 24 25 24 25 26 26 27 27 25
13 10 9 10 13 17 21 21 20 21 22 24 24 26 26 25 27 28 28 26 25 25 24 24 22 21 20 21 20 18 20 23 25 26 26 27 26 25 24 23 22 21 20
12 10 10 11 12 16 21 22 22 22 22 24 24 26 28 26 28 28 29 26 25 24 22 23 22 22 21 21 20 20 22 25 26 25 26 24 24 22 21 19 19 17 18
13 12 11 11 13 18 22 24 24 24 23 23 27 28 28 28 27 29 26 26 25 22 22 24 23 23 22 21 20 20 24 25 24 23 22 23 22 20 20 20 19 19 18
14 12 10 9 11 18 23 25 25 24 23 24 25 28 27 29 29 27 26 24 21 21 21 23 25 25 23 23 22 22 24 24 22 22 23 25 24 20 20 18 17 18 18
14 13 10 8 10 16 22 24 25 25 24 24 23 24 27 25 23 24 23 21 19 20 22 23 24 24 24 24 23 24 24 23 23 24 25 23 19 19 17 16 15 16 17
12 10 10 9 11 13 19 24 25 26 26 26 29 29 27 26 22 20 20 17 19 22 21 25 25 26 25 26 25 25 23 24 24 22 20 20 19 17 16 15 15 16 17
15 13 12 11 11 12 16 22 26 27 30 31 31 32 32 27 27 25 22 17 20 21 24 26 27 27 27 26 24 23 23 22 21 22 22 21 20 17 16 16 16 17 16
17 13 13 14 13 15 16 20 26 27 30 31 32 33 32 29 27 26 24 22 22 25 27 30 27 28 27 26 24 22 21 20 18 19 19 20 19 18 18 16 18 17 18
19 16 16 15 16 16 18 22 24 27 29 30 32 31 34 21 24 28 28 26 24 25 29 31 29 29 28 25 22 21 19 17 17 18 18 20 19 18 18 18 19 18 17
23 19 17 16 18 18 21 21 23 26 31 33 36 38 33 20 28 23 24 27 28 28 33 32 31 29 26 24 21 20 16 16 16 17 17 21 20 19 19 19 17 17 16
23 20 18 17 18 18 19 24 27 29 30 35 39 40 37 28 31 25 33 33 28 29 34 34 32 30 26 23 22 18 15 14 17 18 19 21 20 20 19 18 17 16 15
27 22 18 19 20 19 19 22 24 28 31 31 42 31 34 30 34 33 29 33 30 34 36 37 34 30 26 23 20 17 13 15 18 18 18 20 19 19 19 18 17 15 14
29 25 22 21 22 20 20 22 25 28 30 29 35 32 34 35 38 37 36 37 36 37 41 39 34 29 26 24 19 15 14 15 17 17 18 19 18 18 18 17 16 14 13
32 28 24 23 23 21 21 20 24 26 27 29 32 34 31 36 33 34 41 43 40 38 41 40 36 31 25 25 21 16 14 12 15 16 17 17 17 17 17 15 15 13 13
36 30 27 24 23 21 20 19 22 24 27 29 29 31 31 32 33 35 44 41 39 38 43 42 35 30 27 28 21 18 14 12 15 17 16 15 16 16 16 16 14 13 12
38 32 27 26 24 21 19 19 21 25 26 26 27 31 33 32 33 37 40 37 37 40 45 42 36 32 31 28 24 21 16 12 14 17 15 14 15 16 15 14 13 12 11
39 31 27 27 24 20 19 18 17 20 25 28 28 30 34 36 39 39 38 38 38 41 47 44 38 35 32 28 25 22 17 13 12 15 15 14 15 15 15 15 14 13 11
37 31 28 27 23 19 19 20 20 21 23 30 30 32 36 41 39 46 43 45 42 43 48 44 39 36 32 28 27 23 19 15 13 12 12 13 13 14 15 15 15 13 11
35 33 31 28 23 20 22 23 22 23 24 26 32 31 35 44 44 46 46 43 42 45 52 48 43 38 32 31 30 24 20 17 14 14 12 12 12 13 13 14 14 14 13
38 35 32 27 21 19 21 21 24 25 25 25 29 35 36 34 42 46 45 44 42 46 51 49 48 42 34 34 33 27 21 19 19 18 17 16 12 13 13 13 15 15 15
39 37 32 25 19 16 18 19 17 19 20 25 27 38 27 34 43 43 42 42 42 45 50 50 52 46 40 37 33 23 16 10 23 22 22 19 17 17 16 16 17 18 18
40 36 29 23 17 16 18 17 16 17 23 20 26 41 33 31 35 37 38 38 41 43 46 50 51 47 44 40 34 32 24 15 15 14 25 25 22 23 23 19 22 22 22
39 36 29 22 17 18 20 16 14 15 19 18 26 35 36 35 38 35 33 33 35 39 44 48 50 47 42 41 37 34 27 22 15 17 18 28 28 25 25 24 27 25 24
35 33 29 23 18 19 19 16 18 16 16 19 26 31 33 39 38 36 35 36 37 38 42 42 45 49 42 38 36 35 34 30 24 19 19 16 19 18 18 24 28 27 25

GFSSE_850_spd_087.txt.gz
Wind_Speed
19 13 9 7 8 11 13 14 16 19 21 21 21 21 21 21 20 20 22 22 22 21 21 22 24 23 21 19 18 18 19 19 20 21 21 22 22 22 23 23 24 24 24
17 13 10 9 9 12 14 15 16 17 19 22 23 24 24 24 23 24 25 24 23 22 22 22 22 21 19 18 18 19 19 20 20 20 22 22 23 22 23 23 23 23 24
17 12 10 8 8 11 14 17 17 17 20 24 25 24 25 25 25 25 25 24 24 23 22 22 22 20 17 18 19 17 18 20 22 23 23 23 22 23 24 24 25 24 23
16 13 10 8 8 13 16 18 18 19 22 24 25 25 26 26 26 26 26 25 24 23 23 22 21 19 17 20 19 17 19 22 24 24 23 24 24 24 24 22 21 19 17
17 14 11 10 9 14 17 19 20 21 23 25 26 26 26 26 26 26 27 25 24 22 23 22 20 19 20 20 19 19 20 23 26 25 26 24 22 21 19 16 16 16 17
17 14 12 10 11 14 18 21 22 23 23 26 27 28 28 27 26 25 24 24 22 18 17 18 19 20 22 21 20 20 22 24 24 21 24 22 20 20 20 20 18 17 18
17 15 12 11 12 14 19 21 23 24 25 26 28 28 29 29 27 26 23 21 19 18 19 18 20 20 22 22 22 21 24 24 22 19 19 21 20 19 19 17 17 18 17
17 16 14 13 12 14 18 22 24 25 25 26 26 26 26 25 27 26 24 20 18 18 20 21 21 20 23 23 21 22 22 21 19 19 20 19 17 16 16 15 16 16 17
20 17 16 14 14 15 17 21 25 25 26 25 25 28 29 27 26 26 22 17 19 21 22 21 22 21 24 23 22 22 21 20 21 21 20 17 16 15 15 15 15 16 17
22 20 18 16 15 16 19 20 24 27 27 27 28 31 33 32 31 28 23 24 22 22 21 21 23 23 25 23 22 21 20 20 20 19 19 19 16 16 16 15 14 16 16
26 24 20 18 17 17 20 23 23 24 25 27 32 33 32 34 33 30 23 23 25 24 23 22 24 24 26 24 22 20 22 21 19 16 18 17 17 18 17 15 17 17 17
30 27 23 19 18 19 19 23 23 24 26 27 30 31 33 35 34 27 21 29 29 25 27 25 27 27 26 26 23 21 20 19 19 19 14 19 18 17 17 18 18 18 17
31 28 25 21 20 21 21 23 25 27 29 30 31 34 33 34 32 20 20 33 27 29 26 27 28 30 30 28 25 23 20 17 18 17 16 18 19 19 18 18 17 17 18
33 30 25 22 22 22 23 26 27 29 32 33 30 32 35 39 30 22 25 28 33 33 30 30 32 32 30 27 22 21 18 16 17 18 17 20 19 18 18 17 17 17 15
37 33 30 25 23 23 24 26 26 30 34 36 32 32 40 43 37 31 29 30 34 33 31 35 35 32 29 24 22 17 15 14 17 18 17 20 18 18 18 17 16 15 14
37 37 33 29 25 23 25 26 26 29 32 36 38 33 40 41 35 30 31 33 36 34 33 36 36 34 29 23 22 16 12 15 17 18 16 20 19 17 16 15 15 15 13
33 38 37 32 27 24 26 27 27 29 33 34 36 34 39 39 34 34 35 37 39 36 33 39 36 33 30 27 22 18 15 14 17 18 18 16 18 17 17 15 15 14 14
32 39 37 33 30 25 27 26 25 29 33 33 34 35 35 39 38 36 40 43 42 38 37 40 38 36 32 29 24 19 17 13 18 19 18 17 16 16 17 16 16 15 14
30 34 37 35 32 27 26 24 24 27 32 31 32 30 32 37 34 37 39 41 47 42 41 43 40 35 31 30 26 21 18 14 15 17 17 17 16 15 16 17 15 14 13
29 30 33 35 33 28 26 23 22 22 23 27 28 29 30 33 33 34 35 39 45 41 42 43 41 36 32 32 28 23 20 16 15 17 17 16 16 16 15 15 15 14 12
27 28 33 36 34 28 26 22 23 24 25 26 27 30 29 33 36 36 36 33 35 39 41 45 42 37 35 33 30 25 21 17 16 16 17 17 17 16 16 15 14 13 13
27 29 35 37 32 28 24 21 24 24 25 26 26 31 33 33 39 39 41 43 41 43 41 47 44 39 35 35 27 25 14 17 20 19 19 18 18 17 16 15 14 14 13
28 31 36 38 30 26 22 21 25 26 25 26 28 30 38 34 37 46 43 44 42 42 41 47 47 43 41 36 33 23 12 10 18 21 22 20 19 18 18 17 14 13 15
29 32 36 34 28 25 20 22 25 23 25 25 31 23 36 37 39 46 44 46 44 42 42 46 47 44 42 39 34 29 24 17 14 11 24 22 21 21 19 19 17 20 20
29 33 35 32 28 23 19 18 17 19 19 22 19 25 30 29 29 47 43 35 38 40 40 43 48 46 44 41 40 37 25 20 16 14 13 28 27 26 25 23 23 21 19
28 32 34 30 26 22 17 19 18 14 14 13 18 24 37 27 30 34 33 30 34 36 35 38 45 47 44 39 37 38 34 28 22 19 18 19 27 28 27 26 25 22 23

GFSSE_850_spd_093.txt.gz
Wind_Speed
10 10 11 7 7 7 8 9 10 11 11 12 13 14 13 13 13 13 13 14 15 16 15 16 17 16 16 15 12 12 14 15 15 15 17 18 19 20 20 21 20 22 22
14 12 10 9 6 6 8 10 12 13 13 13 14 15 16 16 15 15 14 15 15 15 15 16 16 16 15 14 11 13 15 15 15 17 18 19 20 21 20 19 19 21 20
16 15 14 10 8 6 7 10 12 13 14 14 15 17 18 18 17 17 16 16 16 15 14 16 16 16 15 13 13 14 14 14 15 15 15 17 18 18 19 17 20 20 20
17 18 14 11 9 6 5 8 11 14 14 14 16 18 19 20 20 19 18 18 18 16 16 18 17 16 15 15 14 13 13 14 16 18 17 18 18 18 17 19 19 17 17
17 17 14 11 11 8 7 9 12 14 15 15 17 19 21 22 21 20 20 19 18 18 18 19 16 16 15 14 14 13 13 15 18 14 16 18 17 18 19 20 18 16 15
17 15 14 12 12 10 9 10 13 14 15 16 17 21 22 22 23 22 21 21 19 18 19 18 16 15 15 15 15 13 15 18 16 18 15 18 18 21 20 18 15 14 12
17 16 15 14 13 11 10 11 14 14 15 16 18 20 22 22 22 21 23 23 20 21 20 18 16 14 15 17 15 14 17 17 14 14 17 17 19 18 17 14 11 10 11
17 16 17 16 15 13 11 12 14 15 15 16 18 20 21 21 22 23 25 23 21 21 20 20 16 13 16 18 16 15 20 17 12 16 16 15 18 16 14 12 10 10 11
17 19 19 18 17 15 13 13 14 15 16 17 17 19 19 21 25 24 24 23 22 22 21 20 17 15 16 18 17 18 22 17 14 13 11 12 13 13 13 12 10 11 11
18 20 21 19 18 15 14 14 15 16 17 18 18 19 18 21 24 25 25 25 25 24 22 20 17 17 17 18 18 20 22 14 15 13 11 10 14 12 12 14 11 11 11
18 19 22 22 20 17 15 15 16 18 19 20 20 20 21 22 25 26 27 27 25 22 19 16 14 17 17 20 21 20 21 13 12 14 13 8 9 10 12 13 12 11 11
20 23 23 24 22 19 15 15 16 18 22 23 24 24 24 24 24 26 28 25 26 24 23 17 13 17 17 22 22 19 17 15 15 12 11 9 9 9 14 12 11 12 12
24 20 27 25 24 22 18 15 13 16 16 19 21 21 23 21 25 27 30 31 29 27 21 20 21 20 21 25 25 22 19 19 15 14 10 9 11 11 13 13 12 13 14
25 26 29 28 24 26 20 20 16 16 17 20 22 23 21 27 27 28 29 33 32 29 26 25 21 24 23 24 25 23 23 20 11 13 12 13 14 11 14 14 15 14 15
24 27 27 29 28 27 27 24 21 22 20 18 21 25 24 25 27 27 26 29 34 32 27 25 30 40 27 24 24 22 22 16 15 10 10 14 16 13 14 16 14 14 14
25 25 28 30 31 27 29 29 25 23 25 23 22 23 27 26 27 31 32 33 30 28 24 27 29 36 30 26 25 21 17 18 13 12 10 16 16 13 14 15 14 14 13
26 25 29 29 31 33 32 31 28 26 26 27 25 25 26 28 28 31 31 34 35 29 23 27 33 40 36 27 22 21 18 15 15 16 13 15 19 16 16 14 14 13 13
28 26 27 28 36 34 35 34 31 29 28 27 27 27 30 31 30 31 35 38 32 30 24 24 28 30 30 28 26 22 17 16 16 16 14 16 17 19 16 15 15 14 15
31 26 26 29 36 31 36 34 34 31 29 30 27 28 28 33 34 32 31 35 34 28 24 30 33 33 29 23 24 21 17 17 18 17 16 17 17 18 16 19 18 17 16
29 26 25 28 35 32 34 36 36 34 32 32 32 31 29 32 31 31 32 37 37 30 29 33 34 32 28 25 24 22 18 16 16 16 17 12 16 15 19 16 21 19 19
25 24 25 27 31 31 37 38 39 38 34 32 34 32 31 32 32 33 32 35 26 28 31 33 36 33 30 26 26 22 19 19 17 16 17 17 15 16 14 14 15 15 17
27 25 25 26 28 33 35 36 26 28 27 32 32 31 31 32 31 31 32 38 37 38 35 40 42 37 32 29 32 24 16 18 20 16 16 17 17 16 15 17 14 15 15
27 26 26 25 28 34 29 25 23 24 28 27 27 25 27 29 30 30 33 36 38 38 38 41 40 40 36 30 33 29 19 11 19 18 17 17 18 18 18 19 19 18 18
30 25 25 25 28 32 27 25 28 32 28 26 24 25 26 26 26 29 31 37 40 37 37 36 43 44 37 37 31 26 20 16 23 13 19 18 19 19 20 19 20 21 21
30 25 24 24 28 23 28 28 28 22 17 15 19 22 22 25 27 31 33 37 37 33 38 37 51 45 39 37 35 30 23 15 22 17 18 20 20 19 19 22 20 21 22
26 23 22 24 26 25 28 28 25 21 18 17 18 18 20 24 26 28 33 35 31 35 39 40 50 46 40 35 33 31 26 21 18 17 14 22 22 19 20 21 23 24 24

GFSSE_850_spd_096.txt.gz
Wind_Speed
11 8 14 10 8 7 6 5 6 8 8 8 9 10 8 9 8 9 10 11 12 13 13 14 15 14 12 12 10 10 10 9 8 8 12 17 19 20 20 20 20 23 22
13 13 13 13 10 7 5 5 7 8 9 9 10 12 9 9 9 10 10 11 12 12 12 14 14 13 12 11 10 10 11 10 10 13 17 20 21 22 21 19 22 22 21
15 16 17 14 11 9 6 6 8 8 9 10 11 12 11 11 11 10 10 11 12 12 12 14 14 13 12 11 9 11 12 12 13 15 16 19 20 19 18 18 21 20 21
15 18 18 13 11 7 5 6 8 9 10 11 12 13 13 13 12 12 12 13 13 12 11 13 14 15 14 11 10 10 11 13 14 18 16 14 18 18 16 20 21 21 20
18 21 16 13 11 9 6 6 8 10 11 11 12 14 14 14 15 14 14 14 14 13 12 14 15 14 13 12 10 10 11 14 16 16 15 16 20 18 20 20 19 17 15
15 20 17 14 11 10 7 6 8 9 11 11 12 14 14 16 17 16 16 16 15 14 14 16 15 14 13 11 11 11 13 17 16 16 15 16 19 21 21 19 17 15 12
17 18 18 15 13 11 8 6 7 9 11 12 12 13 15 16 17 16 17 17 16 15 17 17 14 14 12 11 13 12 17 15 14 16 18 17 21 21 20 16 14 10 9
19 19 19 17 14 12 10 9 8 9 11 12 12 13 15 16 16 17 19 19 19 18 18 17 14 13 13 14 14 15 19 13 15 15 18 19 20 18 16 13 11 10 9
19 22 20 19 16 15 13 11 10 9 10 12 13 12 14 15 17 18 19 19 18 18 19 18 16 14 13 17 16 18 19 14 13 14 16 17 17 15 14 12 11 9 10
21 24 20 21 19 17 15 13 12 12 11 13 13 13 12 15 18 19 19 20 19 20 19 16 14 13 13 16 18 20 20 14 14 14 12 13 14 13 12 11 9 8 9
22 24 25 21 21 19 17 14 13 14 14 15 16 16 16 16 18 19 20 21 20 19 16 17 13 10 12 15 17 21 21 15 14 17 12 8 13 12 11 12 12 10 10
23 23 26 23 23 20 18 16 15 15 16 18 19 19 18 20 21 22 22 22 24 23 24 21 19 11 10 15 19 22 17 17 16 11 14 10 8 10 11 13 12 11 12
27 25 27 24 25 22 18 18 15 16 18 20 21 21 22 21 22 20 24 27 25 26 28 26 19 12 15 18 21 22 20 19 15 13 14 10 9 9 12 13 12 13 12
28 30 26 27 26 26 23 22 16 14 12 16 20 20 19 22 21 23 28 28 31 31 29 29 17 13 18 22 23 26 21 22 18 16 12 10 9 11 11 13 14 15 16
24 33 33 29 27 27 27 24 20 16 16 15 17 21 23 21 25 24 27 29 32 33 30 31 28 23 18 25 26 26 23 20 15 15 15 14 12 12 15 17 16 17 16
28 25 38 32 31 30 30 30 27 26 22 17 17 21 23 25 25 25 27 28 29 32 32 31 24 25 23 31 28 28 23 26 18 18 14 14 14 14 18 18 18 17 16
33 28 31 35 33 30 31 32 30 29 30 28 24 21 22 25 26 24 27 30 29 27 30 29 23 23 29 28 28 26 26 20 16 17 14 9 17 16 16 20 17 15 15
35 33 29 31 33 30 30 34 31 29 28 28 29 24 22 24 27 27 27 29 30 30 30 26 22 21 26 31 30 28 27 23 23 14 13 12 21 19 18 17 15 15 15
35 35 33 31 32 34 30 35 33 31 30 28 27 28 27 26 27 29 30 29 28 26 28 27 20 21 43 36 31 28 26 23 24 19 16 15 20 22 19 19 17 16 16
35 36 34 34 32 33 30 31 32 30 31 29 28 27 27 28 27 30 30 28 29 32 28 28 20 24 36 36 34 31 25 24 20 22 19 17 18 20 20 20 20 18 17
28 31 35 35 34 34 36 35 37 36 34 32 32 29 27 26 24 28 30 29 30 30 34 30 24 30 33 33 26 27 23 21 22 21 19 13 14 20 19 17 20 20 20
26 28 27 30 32 31 36 35 38 36 34 32 34 30 30 29 27 29 31 30 28 28 42 31 28 35 36 34 33 31 23 27 24 21 20 15 13 15 13 18 15 18 18
32 30 29 26 24 27 36 30 32 29 27 30 35 33 30 30 30 30 30 32 32 34 27 28 29 30 42 39 38 35 24 17 27 24 22 22 20 19 15 13 12 11 15
30 35 32 26 25 29 37 31 30 32 34 35 32 29 29 27 27 28 30 31 31 33 32 34 30 30 42 41 34 34 31 30 34 21 24 23 24 26 21 18 19 18 15
24 32 34 30 28 33 37 30 28 33 34 27 27 28 25 25 25 26 31 30 32 35 34 33 39 36 46 43 39 32 28 25 33 28 25 29 23 24 25 25 21 23 28
23 25 33 32 29 35 35 29 29 36 30 19 19 20 22 22 25 27 28 28 31 34 36 34 34 38 49 45 38 35 38 26 32 24 24 35 32 28 23 21 25 22 22

GFSSE_850_spd_099.txt.gz
Wind_Speed
20 15 17 15 11 10 10 10 11 12 13 13 13 12 10 9 9 9 9 9 9 11 13 14 15 16 12 11 8 7 7 9 11 12 16 18 19 20 20 20 21 22 22
17 19 18 15 14 12 9 9 10 12 12 12 12 12 10 9 9 9 9 10 11 12 13 14 15 14 12 11 9 7 7 8 10 13 17 20 20 20 20 22 22 22 22
17 20 20 19 15 11 8 8 9 10 11 12 12 12 10 9 8 9 10 11 12 12 12 14 13 13 12 11 10 10 9 11 13 14 17 19 21 19 20 21 22 22 22
18 21 22 18 13 10 8 7 8 10 11 13 13 13 12 10 9 10 10 10 11 11 12 13 13 13 13 12 11 13 14 15 14 16 18 20 20 18 20 21 21 21 20
20 23 20 16 13 11 9 7 7 9 11 12 14 14 13 12 11 11 11 11 11 11 11 13 13 14 13 12 13 14 15 15 15 17 15 18 20 18 20 21 20 19 16
22 22 18 16 13 12 9 6 7 8 10 12 13 14 14 13 12 12 12 12 12 11 11 13 15 14 13 12 13 16 17 17 16 15 14 20 21 22 21 20 19 16 12
23 23 20 18 15 13 10 7 6 8 10 11 13 13 14 14 14 13 13 14 13 13 12 13 12 14 13 12 15 17 18 17 16 16 15 20 21 21 20 18 16 13 11
19 22 21 20 17 15 12 9 8 8 9 11 12 13 14 14 14 14 15 16 15 14 13 15 13 14 13 14 16 18 18 16 17 16 15 19 21 22 19 16 12 10 10
18 18 21 21 20 17 15 12 10 10 9 11 12 13 14 15 14 15 15 17 16 14 15 16 14 13 13 15 17 20 18 16 16 18 16 22 21 19 17 13 11 10 10
24 23 22 23 21 20 17 14 12 11 11 12 13 13 14 15 15 15 16 17 17 16 17 15 14 10 11 14 17 21 17 16 16 18 18 18 19 15 14 12 11 9 11
26 27 25 24 25 22 20 17 14 13 13 13 14 14 15 17 18 17 17 17 19 17 16 18 17 18 14 15 16 20 17 15 18 19 17 15 14 13 12 11 12 9 10
27 28 29 26 26 25 23 20 17 15 15 15 16 17 17 17 17 18 18 19 20 22 24 23 21 18 14 18 16 19 18 16 17 17 14 11 12 14 14 15 12 10 12
27 30 31 29 27 28 27 23 21 18 17 17 17 17 18 18 19 20 21 21 24 24 26 24 24 23 21 12 15 21 21 21 18 17 16 14 11 12 14 14 14 13 14
32 34 31 31 30 29 27 26 23 21 18 18 18 19 20 21 20 21 21 24 27 28 28 27 25 26 21 18 14 25 24 22 21 18 17 15 13 10 13 16 16 16 16
26 35 35 27 28 30 30 27 24 22 20 16 18 20 21 22 23 23 24 24 29 30 29 29 29 28 21 21 17 26 27 24 22 19 18 17 14 11 11 16 18 18 18
30 29 34 36 32 30 33 32 28 25 21 18 17 18 20 22 23 23 25 25 28 30 31 30 31 31 23 16 20 28 28 26 22 20 18 18 15 12 12 16 22 20 19
34 33 29 36 38 35 33 32 31 28 24 23 20 19 21 23 26 25 25 25 26 28 30 31 29 28 22 18 23 31 32 27 27 25 22 18 15 15 15 20 21 21 20
36 37 38 33 42 41 36 32 32 33 30 27 24 22 23 26 27 26 27 26 26 26 28 30 31 30 25 21 23 33 34 29 26 22 21 17 13 18 17 23 21 20 21
40 41 41 37 41 46 38 33 31 36 35 32 30 28 26 27 28 28 28 27 26 28 27 28 31 29 25 22 27 32 33 29 28 25 22 16 13 18 20 22 20 19 19
41 41 46 41 39 45 40 34 32 33 32 40 37 33 30 30 29 28 28 28 28 27 27 26 27 26 24 21 32 33 32 24 30 27 21 16 14 18 21 23 22 19 18
42 43 46 41 40 47 44 37 35 34 32 30 34 38 36 30 30 29 28 29 31 30 27 28 26 25 22 30 38 33 30 28 28 24 21 18 17 20 23 22 24 22 21
32 35 44 44 41 45 43 38 36 34 32 34 31 29 32 35 33 30 30 30 31 31 28 33 27 27 24 34 43 34 28 30 30 25 23 20 16 17 23 24 24 23 22
27 28 31 30 41 48 43 39 34 29 27 33 35 34 31 30 30 31 30 30 32 30 29 30 30 31 33 37 39 32 18 15 31 26 24 22 17 18 19 19 21 20 23
18 36 35 29 35 42 39 35 31 31 34 38 40 39 37 32 32 32 30 30 32 30 32 27 41 31 31 39 42 32 26 33 35 23 26 24 22 22 19 17 15 18 16
13 14 34 35 35 36 34 30 29 27 28 32 36 35 33 32 32 32 31 31 32 34 33 32 33 28 32 39 45 37 29 33 38 35 32 30 26 26 23 20 18 17 18
16 19 24 39 37 35 31 29 26 28 28 33 30 27 29 28 28 28 29 28 32 35 38 39 40 36 37 40 51 42 37 37 40 36 31 35 37 33 28 24 22 22 21

GFSSE_850_spd_102.txt.gz
Wind_Speed
26 25 25 22 18 15 13 14 16 17 18 18 17 15 14 12 12 13 13 12 11 11 14 14 15 15 12 13 11 11 10 10 11 12 14 16 18 18 19 20 21 22 22
25 25 24 20 17 15 14 14 15 16 17 17 16 16 14 13 12 12 12 12 12 13 13 15 16 14 13 11 11 10 10 11 12 14 16 17 18 18 19 20 21 22 21
21 24 23 20 19 17 14 13 15 16 16 16 16 15 14 13 12 11 12 13 14 14 14 15 15 13 11 10 10 11 11 11 13 14 16 18 18 18 20 20 21 21 21
21 23 23 22 19 16 13 12 12 14 15 16 17 16 14 13 12 11 12 13 14 14 14 15 13 12 10 9 10 11 12 13 14 16 17 18 19 19 21 20 20 21 20
24 23 24 21 18 15 13 11 11 13 14 16 17 17 15 14 13 12 12 13 14 14 14 13 13 12 12 12 13 13 13 15 16 17 18 20 20 20 19 20 20 20 17
24 25 24 21 18 16 14 12 11 13 14 16 17 17 16 15 14 13 13 13 14 13 13 13 13 14 13 13 14 14 14 16 18 18 19 19 19 21 21 20 19 16 13
27 28 25 21 18 16 14 12 11 13 14 16 17 18 17 16 15 14 14 14 14 13 12 13 14 15 14 14 15 15 14 15 17 16 17 19 20 22 21 19 17 12 10
30 29 26 23 20 17 15 12 11 12 14 15 17 18 18 17 16 15 15 15 15 14 13 14 15 16 15 15 16 16 15 14 15 14 18 19 21 21 19 17 15 10 10
29 28 26 24 22 19 17 14 13 12 14 15 16 17 18 18 17 16 15 16 16 14 15 17 16 17 15 16 16 17 15 13 14 15 17 19 20 20 19 16 12 10 10
29 27 26 25 23 22 20 18 15 14 14 15 16 18 19 19 19 18 16 17 16 15 16 16 17 17 17 17 17 16 14 15 16 18 17 22 22 20 17 14 11 10 10
27 26 26 26 25 24 22 20 18 16 16 15 17 19 20 20 20 20 18 18 17 17 17 19 20 21 21 19 18 15 14 16 17 17 17 20 22 19 14 13 12 11 12
31 27 26 26 26 26 26 24 21 19 18 19 18 19 20 21 21 21 20 19 18 19 19 21 21 21 23 23 21 17 15 17 18 20 21 20 18 15 13 13 11 8 11
30 30 27 28 26 28 29 27 25 23 21 21 19 19 21 21 22 22 22 22 22 23 22 23 24 25 25 24 23 22 25 20 20 22 21 17 14 15 16 15 14 10 12
32 30 28 29 28 28 31 30 29 27 24 22 22 20 22 22 23 24 24 24 26 26 25 27 26 27 24 23 20 16 20 23 23 23 22 17 14 13 14 17 17 15 15
35 32 27 28 25 27 31 34 32 30 28 24 23 21 22 23 24 24 24 25 26 26 27 28 25 26 25 24 17 16 19 25 26 25 20 20 16 14 13 16 19 18 18
35 32 27 29 27 29 28 34 35 32 29 27 25 24 23 23 23 24 25 25 26 26 27 28 26 23 30 24 19 19 23 28 27 27 23 23 20 18 14 14 19 20 20
38 35 32 31 30 30 32 31 36 35 31 29 27 26 25 25 25 24 24 25 25 25 27 28 27 26 30 27 21 20 21 31 30 28 24 25 22 17 14 14 22 22 22
33 38 37 34 33 31 33 35 35 35 33 32 29 27 26 27 26 25 24 25 25 26 28 30 31 31 31 31 26 23 29 31 30 29 27 25 22 18 16 16 22 23 23
42 39 39 34 33 33 35 37 39 35 35 34 30 28 28 28 28 27 25 26 25 27 28 33 34 33 32 33 29 26 30 35 34 30 30 27 22 17 17 19 24 25 24
40 39 42 41 38 37 38 38 41 38 36 34 33 31 30 29 29 29 28 27 27 28 28 32 33 34 34 32 28 30 28 38 36 33 32 27 23 19 17 21 26 25 25
31 44 41 44 43 42 42 40 40 40 41 38 36 35 32 32 32 32 30 29 29 30 30 31 29 32 33 33 26 29 30 30 36 35 32 29 26 21 19 22 26 25 23
24 26 45 48 44 47 46 42 44 45 45 42 39 36 35 35 34 32 32 31 30 32 31 29 31 30 32 31 31 28 16 24 32 34 34 31 25 21 20 24 27 27 25
30 29 29 35 48 48 46 45 47 45 40 41 36 37 40 36 34 35 35 34 33 32 32 31 31 32 33 34 34 25 21 11 35 32 33 29 26 23 21 26 27 28 27
10 18 32 32 41 44 48 47 50 46 44 42 38 36 38 38 36 37 34 34 34 33 33 33 34 33 36 38 32 36 30 24 33 21 34 28 27 23 21 26 28 29 27
7 7 12 26 39 37 42 48 51 47 40 38 37 36 37 35 33 36 36 37 36 35 35 35 32 35 36 40 40 41 34 24 38 39 28 35 32 27 24 23 23 23 25
7 5 7 14 28 40 38 46 47 40 38 35 33 34 35 34 36 36 36 36 38 36 37 36 34 39 36 43 37 43 42 35 42 38 29 39 40 36 29 26 24 21 20

GFSSE_850_spd_105.txt.gz
Wind_Speed
28 31 30 29 26 23 21 19 17 17 17 17 16 13 12 11 13 15 14 13 12 11 12 12 13 13 13 14 12 12 9 9 12 12 14 16 16 16 17 17 18 19 19
33 33 31 29 26 23 20 19 18 18 17 17 17 15 13 13 13 13 13 12 11 12 12 13 14 12 13 11 11 11 10 11 11 13 16 17 17 17 17 17 18 19 19
31 32 31 28 25 21 20 19 18 19 18 18 17 16 15 14 13 13 13 12 13 14 14 13 13 11 10 10 9 9 10 11 13 15 16 17 17 17 18 18 18 18 18
29 30 29 26 23 21 20 19 18 18 18 18 18 16 15 14 14 13 13 13 13 14 14 14 13 11 10 10 9 10 10 11 12 14 16 18 18 18 19 19 18 18 18
30 29 26 24 23 21 20 18 16 16 17 18 19 17 16 15 14 13 13 14 14 13 13 13 12 11 11 10 10 11 11 12 13 14 16 18 19 19 20 19 19 18 17
30 27 25 24 23 21 19 18 17 16 17 18 19 19 17 16 15 14 13 13 13 13 13 13 13 12 12 11 12 12 12 12 14 15 15 17 18 20 19 19 18 17 15
30 29 28 25 23 21 19 18 17 16 17 18 19 19 18 17 16 15 14 14 14 13 13 13 13 14 13 13 12 12 12 13 14 15 15 16 19 20 19 18 17 13 11
30 30 29 27 24 22 20 19 17 17 16 18 20 20 19 18 17 16 16 15 14 13 13 14 15 15 15 14 13 13 12 13 14 14 16 16 18 19 20 19 14 10 8
32 32 31 29 26 23 20 18 17 17 16 18 20 20 20 19 18 17 16 15 14 14 14 15 16 16 16 15 14 13 11 12 13 13 16 18 20 20 19 17 13 9 8
32 32 32 29 27 24 22 19 17 16 17 17 20 20 20 20 19 19 17 16 15 15 15 15 16 17 16 16 16 14 12 11 12 12 16 18 20 19 18 16 11 9 9
34 34 32 31 29 26 23 20 18 17 17 17 20 21 21 22 22 21 19 18 18 16 17 18 18 19 18 18 17 15 13 12 13 12 15 18 20 21 19 14 11 10 10
35 35 33 31 30 28 26 23 21 19 20 20 21 23 23 23 23 22 21 20 19 19 19 19 20 21 21 20 19 16 14 12 12 14 18 18 21 20 16 13 12 11 11
33 34 33 31 29 28 27 26 25 23 21 21 22 23 24 24 25 24 24 24 23 23 22 22 22 22 24 22 23 22 17 14 13 17 21 21 22 20 15 14 13 10 11
32 30 31 30 29 28 28 28 28 27 25 24 24 25 25 27 27 27 27 27 26 26 25 24 26 26 26 24 25 24 21 19 18 22 24 23 21 17 15 15 14 13 12
35 36 32 33 31 30 29 28 30 30 29 27 26 26 26 28 28 27 29 29 28 27 27 26 26 23 28 28 27 25 20 18 21 22 26 25 20 16 14 14 17 17 15
32 41 39 37 35 33 29 28 30 33 32 31 29 28 27 27 28 28 28 29 29 28 27 27 26 26 28 28 28 27 22 22 19 21 26 27 23 18 16 15 16 17 17
32 30 45 41 39 37 30 28 27 30 35 34 32 29 29 30 29 29 28 29 29 28 27 27 27 25 25 26 31 27 24 23 20 24 29 30 26 22 18 15 15 19 19
36 35 33 46 48 44 37 32 30 27 32 35 34 33 32 32 31 31 30 29 28 28 28 29 29 29 26 28 32 29 26 25 25 28 29 33 30 26 20 17 16 17 20
35 38 40 39 46 50 44 39 33 30 28 33 35 34 33 33 33 33 32 30 28 29 29 29 29 29 28 30 32 31 29 27 26 30 32 30 30 27 22 19 16 21 22
28 33 40 43 43 49 49 42 37 34 31 31 34 34 34 33 34 33 33 31 29 29 29 30 29 29 31 31 31 36 32 29 27 31 33 31 32 27 23 19 19 23 25
33 31 34 42 42 46 51 46 44 42 35 34 33 34 35 34 33 34 33 32 31 31 29 29 29 28 32 33 34 37 35 32 31 36 37 35 33 30 25 20 21 26 27
31 29 29 32 36 43 50 46 44 42 38 35 37 37 34 36 35 35 35 35 32 31 30 28 30 28 31 34 34 28 12 25 31 36 43 36 36 34 29 24 23 24 27
35 36 31 27 30 39 47 48 46 42 41 42 41 38 35 37 36 36 35 33 34 33 32 31 31 31 30 32 33 28 10 10 20 26 32 33 37 36 30 27 25 26 25
30 33 30 29 29 33 42 48 49 46 43 45 43 40 37 36 36 38 38 37 36 34 35 34 32 31 31 31 34 37 33 15 14 12 31 31 43 35 32 29 27 27 28
16 19 20 26 28 32 36 45 47 47 46 46 47 43 41 40 39 37 40 39 37 37 37 35 32 33 33 34 37 36 38 35 28 24 20 34 38 36 33 29 27 28 29
3 11 16 19 24 30 31 37 44 43 47 48 47 46 42 43 39 37 41 39 38 37 37 36 34 34 35 36 38 41 38 37 32 33 31 37 39 36 33 31 27 28 30

GFSSE_850_spd_108.txt.gz
Wind_Speed
32 32 31 29 29 28 25 22 19 18 18 18 16 17 18 17 16 16 15 14 13 12 12 12 13 12 13 12 13 13 9 9 10 11 13 16 17 17 18 18 18 19 18
36 35 32 30 29 27 24 21 20 19 18 18 17 15 16 17 16 16 14 13 13 13 13 13 13 11 13 12 12 10 8 11 12 13 16 17 16 17 17 17 18 19 19
34 34 32 30 30 27 24 21 21 20 19 18 17 17 16 16 16 14 13 13 13 13 13 13 13 12 12 11 11 10 11 11 13 15 16 17 17 17 17 17 18 18 18
31 32 31 31 30 27 24 22 21 20 19 18 17 17 17 16 14 13 13 13 14 14 14 13 12 12 11 11 10 11 11 12 14 15 15 17 17 16 18 17 17 18 18
31 30 31 31 29 27 24 22 21 20 19 18 18 17 17 17 16 14 14 14 14 14 13 13 12 11 11 10 10 10 10 11 12 12 14 17 17 18 18 18 17 17 17
31 32 31 30 27 26 24 22 21 20 19 19 19 19 18 18 17 15 14 14 14 14 13 13 12 12 11 11 11 11 11 11 12 13 13 14 17 18 18 17 17 16 16
30 31 29 28 26 26 24 22 21 20 19 19 19 19 19 18 18 16 15 15 14 14 13 12 13 13 12 12 11 10 11 12 12 12 12 15 17 18 17 18 17 15 14
30 31 30 28 27 26 24 22 21 21 20 20 20 20 19 19 18 17 17 15 14 14 13 13 14 14 13 13 11 11 11 12 12 11 11 13 17 18 19 19 16 13 10
31 32 31 29 27 24 22 21 21 21 21 20 19 20 20 19 19 19 18 16 14 14 13 15 15 15 14 13 11 11 11 12 12 12 11 13 16 18 19 18 14 10 7
33 33 33 30 28 27 25 23 22 22 21 20 20 20 20 20 20 20 19 18 17 16 15 15 17 16 15 13 13 12 11 12 11 11 12 16 17 18 18 18 13 8 7
32 33 33 32 29 27 25 23 22 22 21 21 21 20 21 22 22 22 21 20 20 18 17 16 17 17 17 14 13 12 12 11 12 12 12 16 17 18 18 17 13 8 7
32 35 34 32 31 29 28 25 24 23 23 23 22 22 23 24 23 23 22 21 21 20 18 18 18 19 19 17 15 15 13 13 13 12 13 16 18 19 19 17 12 10 8
30 32 33 33 32 31 29 28 26 25 25 23 23 23 23 24 25 25 24 24 23 23 21 21 21 22 21 20 19 18 17 15 12 12 13 14 18 20 20 15 12 10 9
25 29 32 32 31 31 29 29 27 27 26 25 24 24 24 26 27 28 28 26 25 26 24 24 24 23 23 22 21 20 19 14 15 16 16 18 19 22 21 15 14 12 10
28 26 30 33 34 33 32 31 30 29 28 26 26 25 26 27 28 29 30 28 27 27 25 25 25 25 25 25 24 23 23 20 20 17 18 21 20 23 20 15 14 14 13
23 25 27 33 35 35 35 33 32 31 30 30 29 28 27 27 28 30 31 31 29 28 27 26 25 26 25 27 26 26 27 23 20 17 16 22 21 24 19 16 13 14 14
26 27 30 33 37 39 38 36 34 32 33 35 33 31 29 28 29 30 31 33 31 30 28 27 26 25 26 26 28 29 29 26 23 24 18 11 26 28 23 19 15 15 16
35 32 28 34 37 41 44 40 36 35 34 34 35 34 32 29 30 30 32 33 32 31 30 29 28 27 27 26 26 29 29 30 28 27 24 17 28 31 28 23 18 16 17
31 31 32 31 39 39 41 45 42 37 34 33 33 35 35 33 32 32 33 33 33 32 31 31 29 28 28 26 26 26 29 31 29 27 25 25 27 32 31 25 20 17 17
32 33 30 30 36 41 42 45 47 43 38 36 35 35 34 35 34 33 34 35 34 33 32 32 31 29 29 26 26 27 30 30 31 30 28 28 29 32 36 28 23 19 19
28 28 31 31 31 37 46 51 48 52 46 40 38 36 36 34 34 36 35 36 35 35 33 30 31 30 31 29 25 32 33 32 36 34 30 28 30 33 29 28 24 21 20
27 29 29 29 29 33 46 52 51 48 51 43 44 42 37 34 35 35 35 36 36 36 34 32 31 32 32 30 30 29 22 30 35 36 33 34 30 35 35 31 27 22 21
28 30 29 30 30 29 32 43 48 44 48 46 47 42 39 39 33 33 34 35 35 37 35 34 31 32 33 32 30 27 11 14 21 28 31 39 40 40 39 34 31 26 25
22 25 27 27 29 29 31 36 46 48 48 53 43 42 43 40 35 33 34 35 36 35 34 35 34 33 31 32 29 33 34 25 11 12 24 30 44 42 39 36 33 29 27
19 20 23 28 28 30 34 37 42 50 48 45 45 49 45 43 39 35 34 35 32 35 38 37 36 34 33 33 32 32 32 34 32 13 15 24 32 35 37 38 36 31 29
11 12 16 24 26 33 35 37 40 46 47 49 47 46 45 45 41 35 36 36 31 37 39 37 35 34 35 34 35 37 37 30 35 36 27 27 35 38 36 37 39 33 31

GFSSE_850_spd_111.txt.gz
Wind_Speed
30 31 30 27 26 24 22 21 19 18 19 20 21 21 20 18 17 17 17 15 15 14 14 13 12 11 11 11 12 13 8 8 9 10 11 15 16 16 17 17 18 17 17
34 33 30 28 27 25 23 21 19 18 19 20 22 22 21 19 19 18 17 15 13 13 13 13 11 11 12 12 13 11 8 9 9 11 14 15 15 16 16 16 17 18 18
32 33 31 28 27 26 24 22 19 19 19 19 21 22 21 20 19 18 17 15 14 13 13 13 13 13 13 12 11 9 10 11 11 14 15 14 15 16 16 16 16 18 18
31 33 31 29 27 26 24 22 20 19 19 18 18 20 21 20 19 18 16 15 14 13 14 14 13 13 12 11 11 11 11 12 13 14 15 16 17 16 16 16 17 17 17
32 33 31 28 27 26 24 22 20 19 18 18 17 18 19 19 18 17 16 15 14 15 14 15 14 13 12 11 11 11 11 11 12 12 13 15 16 16 16 16 16 16 16
31 32 30 28 27 26 25 22 21 19 18 18 18 18 18 18 18 17 16 15 15 15 14 14 13 12 11 11 11 11 11 11 12 11 13 14 16 17 16 16 15 15 15
28 31 30 28 27 26 24 23 22 20 19 18 18 18 18 18 17 17 16 16 15 15 14 14 13 12 12 11 11 11 11 11 12 12 13 14 15 17 17 16 16 15 13
29 32 30 29 28 27 25 24 22 20 19 19 19 19 18 18 18 17 16 16 15 15 14 14 13 13 13 12 12 11 11 11 12 11 11 13 15 17 18 18 17 14 13
29 32 31 31 30 27 24 23 22 21 20 20 20 20 19 18 18 18 17 16 16 15 15 14 14 14 14 13 11 11 11 11 11 12 10 13 15 17 19 20 17 14 8
29 31 31 31 30 28 26 24 23 21 20 20 20 20 19 19 19 18 18 17 16 15 15 14 15 15 14 13 12 11 11 11 12 12 12 12 15 17 20 20 15 10 8
28 31 32 32 31 29 27 25 24 23 22 21 21 21 21 21 21 20 20 19 17 16 16 15 17 16 15 14 12 12 12 12 13 13 12 13 15 18 19 20 16 10 9
25 29 31 31 31 29 28 27 26 25 25 24 24 24 24 23 23 23 21 20 19 18 17 17 17 17 17 17 16 15 14 13 13 13 12 13 16 18 18 19 16 12 10
20 26 30 32 32 31 31 30 29 27 27 26 25 25 26 25 24 24 24 23 22 21 21 20 20 21 21 19 18 18 16 14 13 13 12 13 15 17 19 19 18 13 10
16 19 25 28 31 32 32 31 31 29 28 27 27 26 27 27 27 27 27 27 26 25 24 24 23 22 21 21 20 18 17 15 14 14 14 13 16 18 22 21 18 13 10
14 12 18 21 30 32 31 32 33 31 29 28 28 28 27 28 28 29 29 29 28 28 27 26 24 24 23 22 21 20 19 18 16 16 15 16 17 21 23 22 18 15 13
22 21 17 19 18 28 35 35 35 33 32 30 29 30 29 29 29 30 30 30 30 29 28 27 26 24 24 23 23 23 22 21 20 19 16 16 19 21 23 24 19 16 15
24 24 25 22 22 24 29 33 37 35 35 33 32 33 33 31 31 31 32 32 31 31 30 28 27 25 25 25 25 26 25 24 25 21 18 16 17 20 27 30 14 16 15
25 26 24 28 28 28 30 32 36 37 37 36 34 34 35 34 33 34 34 34 33 31 31 31 29 28 27 27 27 28 28 26 28 24 22 23 17 12 22 28 18 17 16
24 26 28 26 28 31 32 35 37 38 39 37 34 35 37 38 36 35 34 35 35 33 32 32 32 30 29 29 29 26 25 24 27 28 29 28 29 23 16 26 27 23 19
27 26 26 29 32 32 37 37 39 42 42 41 37 37 38 39 40 37 36 35 36 35 34 33 33 30 31 30 24 21 23 25 25 30 31 31 30 28 25 29 27 26 23
32 29 27 27 29 32 36 41 42 44 44 45 44 38 39 38 38 39 38 37 38 37 36 35 32 31 33 29 26 27 26 28 31 31 32 33 31 31 24 25 32 30 26
28 28 29 30 30 31 35 38 40 43 46 46 49 46 42 40 37 39 42 41 40 38 38 35 33 34 34 32 30 29 21 27 35 36 35 37 34 30 29 29 31 35 28
25 25 28 31 32 33 32 32 34 37 41 43 49 52 47 44 41 39 42 41 39 40 39 38 35 34 35 36 34 29 14 18 17 25 35 35 32 32 32 30 31 34 32
28 31 29 32 34 33 33 34 35 40 41 45 49 50 50 49 45 42 41 39 41 39 39 38 36 35 33 36 34 36 33 16 11 10 18 23 30 30 30 36 37 40 35
28 29 35 35 33 34 34 35 37 42 44 45 46 46 52 54 47 44 40 41 42 39 37 37 37 37 34 34 37 35 32 34 36 25 16 23 28 29 30 37 36 38 37
23 23 28 31 33 31 35 37 40 42 43 40 45 47 49 53 50 46 45 41 40 37 35 35 36 34 35 35 36 34 35 32 36 36 30 25 25 28 30 31 38 37 37

GFSSE_850_spd_114.txt.gz
Wind_Speed
16 23 27 24 22 19 17 16 15 17 21 22 23 23 19 17 17 17 16 16 15 15 15 14 13 13 11 11 11 11 7 6 8 8 10 13 14 15 15 15 15 16 17
12 24 25 24 22 19 18 16 16 17 21 22 23 22 19 17 16 16 15 15 14 14 14 13 11 11 11 11 12 10 6 8 8 9 12 13 13 14 15 15 16 17 17
15 26 27 24 22 20 19 18 17 18 20 21 21 20 18 17 17 16 15 14 14 14 13 12 11 11 12 12 12 8 8 9 9 11 12 12 12 14 14 13 15 17 17
14 27 28 26 23 21 21 19 17 18 19 20 21 20 18 17 17 16 15 14 14 13 13 13 12 12 11 11 10 8 9 9 10 13 11 12 12 14 14 14 16 16 16
15 25 30 27 24 23 21 19 18 18 19 20 21 20 19 18 18 16 15 14 14 14 14 13 12 12 11 10 10 9 9 9 11 12 11 11 12 15 15 15 15 16 16
15 21 28 27 25 24 22 20 18 18 18 19 20 21 20 20 18 16 15 14 14 14 14 13 13 12 11 10 10 10 9 9 10 9 10 14 12 15 15 15 17 16 15
14 18 27 27 26 25 23 21 20 18 18 18 18 19 20 19 18 17 15 15 14 14 14 13 13 12 11 10 10 10 10 11 11 9 11 13 12 15 16 16 15 15 15
13 19 26 29 27 26 24 22 20 19 18 18 18 19 19 19 18 17 16 15 15 15 13 13 12 12 11 11 11 10 10 12 12 11 11 13 12 16 17 16 16 15 13
16 20 25 30 30 27 24 22 21 20 19 18 19 19 19 18 18 17 16 16 15 14 13 13 13 12 12 12 11 10 10 10 10 8 10 12 13 16 18 17 16 14 12
12 19 24 31 31 29 27 24 22 21 20 19 19 19 19 19 18 18 17 17 15 14 14 14 13 13 13 12 11 10 10 11 9 9 10 11 14 16 18 18 15 14 10
10 21 27 29 31 30 26 27 24 22 21 21 20 21 20 21 21 20 20 18 16 15 14 13 13 13 13 13 12 11 11 10 9 9 10 16 15 17 18 20 17 12 9
10 19 29 30 31 32 24 24 27 26 25 24 24 24 24 20 19 19 21 20 18 16 15 14 13 14 15 15 15 14 12 10 11 11 11 13 15 17 18 21 19 13 11
9 12 25 30 30 31 26 26 24 23 23 26 26 25 25 22 22 22 19 22 21 20 19 17 17 18 17 13 13 14 12 12 11 11 13 13 14 15 19 20 21 17 13
7 9 14 22 29 31 32 31 31 26 30 29 29 27 24 27 23 22 20 19 20 20 18 20 18 18 17 16 15 15 15 13 12 13 14 14 15 16 19 21 20 20 16
7 6 11 16 22 28 32 33 33 33 26 32 32 32 30 30 31 27 22 21 20 20 21 20 19 21 20 19 17 16 16 14 14 12 13 14 14 16 18 20 21 23 19
10 9 12 13 18 22 29 33 34 35 32 33 34 34 34 31 29 32 27 23 23 23 22 22 20 20 20 18 19 19 16 16 16 15 13 15 16 17 20 22 27 28 22
15 13 14 16 17 21 24 29 35 37 37 35 35 35 35 35 32 33 33 28 25 24 25 26 23 21 20 21 20 19 17 18 18 17 16 14 16 19 21 22 29 41 21
19 18 16 18 21 23 25 27 30 34 37 39 38 36 35 35 36 34 35 35 31 28 29 26 27 25 21 22 20 21 21 19 18 18 18 17 16 19 20 19 22 22 16
18 20 20 22 24 25 25 27 29 31 32 31 36 36 35 36 37 36 33 37 37 37 33 29 26 29 24 25 22 22 21 21 20 20 20 20 21 26 21 18 17 20 29
19 21 25 24 24 25 26 25 25 27 29 30 29 32 36 38 39 38 29 32 37 39 37 37 32 29 26 27 21 19 18 18 19 19 20 22 27 30 31 30 21 19 26
18 21 22 26 23 21 21 27 28 32 32 33 34 37 38 40 37 38 36 36 37 39 41 39 38 34 31 28 23 23 22 23 22 22 22 21 24 30 32 26 27 24 34
19 20 20 21 22 20 18 22 29 30 31 35 36 38 39 38 38 38 39 39 41 41 42 41 42 40 36 35 33 25 19 21 27 27 25 26 32 33 32 31 31 29 27
21 21 22 23 22 23 23 21 25 29 31 32 36 40 40 43 44 42 42 42 42 42 42 43 42 42 41 39 34 20 11 16 12 16 24 25 30 34 34 31 31 27 27
24 24 25 27 28 26 25 23 25 32 36 38 33 39 47 50 49 49 46 44 40 41 42 43 43 43 41 41 37 35 26 14 12 9 12 18 21 25 27 23 30 29 30
24 25 26 28 31 30 26 25 26 31 37 34 33 32 39 50 55 55 50 47 42 40 41 43 43 43 42 42 41 36 29 27 25 25 21 14 21 25 24 28 27 28 32
24 25 27 29 32 32 35 32 29 32 36 37 35 34 35 45 54 55 54 50 45 42 42 42 42 41 42 42 39 28 26 28 27 27 23 26 25 20 22 24 25 29 29

GFSSE_850_spd_117.txt.gz
Wind_Speed
2 9 22 21 19 17 15 14 13 13 14 15 16 17 14 13 12 12 12 11 12 13 12 11 11 10 9 8 8 9 6 4 5 5 7 10 11 12 13 14 13 14 15
5 17 21 22 19 17 16 15 13 13 15 16 17 19 15 13 12 12 12 11 11 12 11 11 11 10 9 8 8 8 4 5 5 6 9 10 10 12 13 14 14 14 15
5 19 22 24 20 18 16 15 14 14 16 17 19 19 16 13 13 13 12 11 11 11 11 10 10 9 8 8 10 7 4 5 5 8 9 8 10 12 12 12 13 15 15
4 14 26 27 22 20 18 16 15 15 16 18 19 19 17 14 13 13 12 11 10 11 10 9 9 9 9 9 9 5 5 6 8 11 10 9 10 12 11 11 14 15 15
4 13 23 27 24 21 19 18 17 16 17 18 19 19 17 15 14 14 12 11 10 10 11 10 9 10 9 8 7 6 7 8 11 8 6 9 9 12 11 12 12 13 14
4 11 20 26 24 22 20 19 18 17 17 18 19 19 17 16 16 15 13 12 11 11 11 11 10 10 9 8 7 7 7 8 8 8 10 7 9 11 12 14 14 14 13
4 12 19 24 24 23 22 21 19 17 17 18 19 19 19 18 17 16 14 13 12 12 12 11 10 10 9 8 8 8 8 9 10 7 9 8 10 11 13 13 13 14 13
5 12 17 23 26 24 22 21 19 18 18 18 19 20 20 19 18 17 15 14 13 13 12 12 11 10 9 8 8 8 8 12 6 8 9 11 11 13 14 14 13 13 12
5 11 16 22 27 25 23 21 19 18 18 18 18 19 20 20 19 18 16 15 15 14 13 13 12 11 10 9 9 8 9 10 10 5 9 10 10 14 15 15 14 14 11
3 11 16 18 27 27 25 23 21 20 19 19 18 18 19 20 20 19 18 16 16 15 14 13 13 12 11 10 10 9 9 11 10 9 4 9 9 14 16 15 16 14 13
12 11 17 18 24 21 22 26 23 21 20 19 19 19 20 20 21 21 19 18 17 16 15 14 14 13 12 12 11 10 11 10 5 6 5 13 14 14 15 17 17 15 12
9 10 17 20 23 20 19 19 25 24 24 23 23 23 23 21 18 18 18 20 18 17 15 15 15 14 14 14 15 13 12 9 8 9 10 14 15 15 16 19 19 15 11
8 9 13 19 22 29 22 19 19 19 21 24 24 22 25 19 19 20 18 22 21 20 19 18 18 18 17 12 12 13 11 9 10 10 13 14 12 15 16 19 21 17 13
8 6 12 15 19 25 30 24 22 20 20 21 22 25 22 21 23 20 21 18 22 20 20 19 18 19 16 17 16 13 12 12 11 11 16 14 14 16 17 19 22 20 17
7 6 5 11 16 19 24 27 32 30 27 24 22 24 25 23 23 22 22 20 21 19 21 21 20 18 20 20 20 19 17 14 14 12 13 12 14 15 16 18 21 20 20
10 9 8 10 13 18 21 23 26 29 25 27 26 29 30 26 29 23 23 22 20 21 24 21 22 23 24 21 20 21 19 17 16 15 13 14 17 16 15 17 19 20 23
13 12 11 11 14 16 20 21 26 23 27 27 25 30 35 33 25 28 31 24 22 22 23 22 22 24 23 20 20 20 19 18 20 20 16 15 15 19 19 18 18 19 28
13 12 12 11 13 15 18 19 22 24 28 29 29 30 31 35 35 30 30 33 24 23 23 27 25 23 25 23 22 20 20 18 22 20 17 19 17 14 18 21 18 18 21
13 13 13 13 14 16 19 21 23 24 26 29 31 31 32 35 38 37 30 34 33 25 27 29 29 28 27 22 22 21 20 18 18 18 20 21 20 20 14 19 23 16 13
15 16 16 15 14 14 18 24 24 25 27 31 32 34 32 33 37 40 32 32 35 36 34 29 32 29 26 24 24 20 22 20 19 19 18 19 22 22 24 25 24 23 25
17 18 17 16 15 15 14 17 23 29 30 31 34 34 35 35 35 35 33 32 35 38 43 38 31 32 31 26 22 21 20 23 21 19 17 20 22 22 26 26 29 27 23
19 20 20 19 17 15 15 16 20 27 32 35 35 37 39 36 37 38 37 37 37 37 39 42 40 35 34 31 27 20 16 23 23 23 23 22 23 21 24 26 27 25 24
21 21 22 22 20 19 17 19 21 25 32 30 40 41 39 41 40 42 41 42 42 41 37 41 42 43 39 37 33 21 11 17 14 22 25 25 25 25 24 27 27 28 28
24 22 21 23 22 20 19 19 21 24 28 33 36 36 41 41 45 45 44 42 43 45 40 38 41 45 42 41 40 40 26 13 13 13 16 17 19 24 23 24 23 26 29
25 25 25 24 23 21 21 21 22 24 27 30 30 39 39 41 43 47 48 46 45 44 43 39 40 44 47 44 44 38 37 32 24 18 17 15 16 18 21 20 23 21 23
27 27 26 26 24 22 21 23 25 26 28 29 31 30 40 41 45 48 49 47 48 45 41 40 40 40 44 44 44 38 33 34 29 26 26 24 22 17 18 20 24 19 19

GFSSE_850_spd_120.txt.gz
Wind_Speed
10 2 11 17 16 16 14 13 12 11 11 11 12 13 12 9 8 9 9 8 8 9 9 9 9 10 9 8 8 7 6 3 2 2 4 9 10 13 14 14 13 15 15
9 7 7 19 17 17 15 14 13 13 13 12 12 13 12 10 8 8 8 8 8 9 8 8 8 7 7 6 6 6 3 3 3 4 7 9 11 13 14 15 10 14 14
5 10 14 19 19 17 16 15 14 14 14 14 13 15 13 10 9 8 8 7 8 8 7 8 8 7 6 6 6 5 3 4 5 8 9 7 10 11 11 10 10 14 14
2 12 15 20 22 19 17 15 14 14 14 14 14 16 14 11 10 9 9 8 7 8 8 7 8 7 7 6 7 4 4 5 9 11 13 4 8 11 9 9 10 13 13
2 10 13 23 24 19 17 16 15 14 15 15 16 16 14 11 11 10 10 9 8 8 7 6 7 7 7 7 5 4 6 7 9 9 12 8 4 10 10 10 11 11 12
2 10 11 23 23 20 18 16 14 14 14 15 15 16 15 13 12 12 10 9 9 8 8 7 6 7 6 5 4 5 6 6 8 9 10 11 5 8 11 12 13 12 11
2 10 11 14 22 21 19 17 15 14 15 15 15 15 15 14 13 13 11 10 9 9 9 8 7 7 6 5 5 5 6 7 8 6 10 5 8 8 11 12 11 12 11
3 9 11 13 19 21 19 17 16 15 15 15 15 15 15 14 14 13 12 11 10 10 10 9 9 8 7 6 6 6 8 8 4 2 6 6 6 9 11 12 12 11 11
3 7 11 13 18 23 21 19 17 16 16 16 16 15 15 15 15 15 13 13 12 11 11 10 9 9 8 7 7 7 9 10 5 7 8 10 7 9 11 13 12 13 12
12 9 14 16 17 26 24 22 20 18 17 17 16 17 16 16 17 16 15 14 14 13 13 12 11 10 10 9 8 8 8 13 9 3 4 5 5 8 11 12 13 14 12
12 11 16 17 15 25 25 24 23 21 19 18 18 18 18 19 20 19 18 16 15 15 14 13 13 12 12 11 11 10 9 12 5 5 8 7 2 5 10 13 14 14 12
10 16 13 18 16 19 24 27 25 24 23 22 21 20 20 21 21 21 20 19 18 17 16 15 14 14 14 14 13 13 11 12 7 11 9 5 7 9 11 15 16 15 11
11 10 15 14 19 22 21 23 24 28 27 27 26 24 23 22 18 18 17 19 20 20 19 18 18 17 16 15 14 15 11 13 9 9 7 8 11 11 13 14 17 17 12
9 12 13 13 14 22 26 23 25 25 30 30 29 27 27 26 23 21 20 20 21 23 22 21 21 19 18 14 11 11 8 14 10 11 12 13 14 13 13 15 17 19 14
10 7 9 12 11 14 23 25 20 21 23 24 27 28 28 27 26 27 22 23 20 20 20 22 20 20 20 19 16 18 14 13 13 13 16 13 10 13 12 14 15 19 18
9 9 10 12 11 15 19 23 29 27 23 23 23 24 28 27 27 29 26 26 23 19 19 20 21 20 18 20 21 21 20 18 17 16 14 16 12 12 12 12 14 16 19
10 11 12 10 14 14 15 20 26 28 31 24 29 25 26 30 27 28 26 30 26 21 23 22 22 23 20 23 26 24 21 22 22 20 17 17 15 14 15 17 16 16 17
10 10 7 6 7 9 14 16 21 26 27 30 26 30 36 34 34 34 33 31 28 24 27 27 24 26 24 25 23 23 23 21 21 24 22 19 18 17 16 17 19 20 18
12 14 13 12 11 15 16 17 19 23 25 29 35 30 34 35 38 34 33 37 35 29 30 29 27 30 27 27 25 22 22 23 23 21 23 22 23 21 21 19 19 23 21
17 19 19 17 17 18 19 20 24 22 27 30 31 38 32 37 35 46 35 37 39 36 33 31 32 30 30 26 26 25 27 24 22 23 21 21 21 24 24 23 22 24 25
20 21 21 22 20 19 18 16 14 18 26 29 32 32 39 35 39 36 48 39 40 45 42 34 37 33 34 29 24 27 24 26 27 25 24 22 20 21 25 30 27 26 27
20 23 24 23 23 22 19 19 24 27 27 23 32 37 38 39 40 39 39 47 47 44 46 40 39 37 36 33 32 26 20 24 29 28 26 23 21 23 23 27 27 26 27
20 23 23 24 24 24 23 24 25 33 33 32 29 28 40 40 40 42 43 42 47 48 45 49 49 44 38 37 38 27 13 17 20 30 32 30 27 27 27 27 29 29 28
23 22 23 24 26 26 24 23 22 25 30 32 29 31 30 40 42 44 46 45 43 45 46 44 44 45 43 40 39 41 32 11 16 11 21 26 25 31 31 29 31 30 28
24 25 24 26 28 27 24 25 25 28 32 34 38 35 32 27 44 46 46 47 47 46 47 51 45 41 44 44 44 43 41 38 23 16 14 23 24 23 23 22 27 27 28
26 28 28 28 27 28 29 29 29 28 32 35 38 43 41 31 31 48 47 49 48 51 50 39 41 41 42 43 42 41 44 41 44 36 26 19 25 24 22 21 21 23 24

GFSSE_850_spd_123.txt.gz
Wind_Speed
8 1 7 13 14 15 14 13 12 11 12 13 12 12 11 10 8 8 7 7 8 10 11 11 12 11 9 7 5 3 3 2 1 5 8 11 12 13 13 14 15 16 16
6 4 6 13 14 14 14 13 12 11 12 13 12 12 11 10 9 9 8 8 7 8 9 9 9 9 8 7 6 6 2 6 6 9 11 13 14 14 14 14 13 15 16
8 6 11 14 15 14 14 13 13 12 12 13 12 13 13 10 9 9 8 8 8 8 7 7 7 6 6 6 7 6 5 6 10 11 11 12 13 13 9 12 13 15 16
8 4 9 15 17 16 15 14 13 13 12 13 12 13 13 10 9 8 8 7 7 7 7 6 6 5 5 5 7 5 6 9 11 11 11 6 11 11 10 10 12 14 14
6 8 5 13 19 18 16 15 14 13 13 13 13 13 12 9 9 9 8 7 7 7 7 6 6 6 6 6 6 5 8 11 12 11 8 3 6 9 10 11 11 12 13
1 6 8 10 20 19 17 15 15 13 13 14 13 14 13 10 9 9 9 8 7 7 7 6 7 7 7 6 5 7 9 14 10 11 11 6 1 8 10 11 12 13 12
3 5 8 9 21 21 19 16 15 14 14 14 15 15 14 11 10 10 9 8 7 7 7 7 6 7 7 5 5 7 10 13 9 4 6 4 5 8 10 11 11 12 12
2 3 7 9 13 20 20 18 17 15 15 15 15 15 14 12 11 11 11 9 8 7 8 8 8 8 7 6 7 10 10 12 7 18 8 4 5 8 10 12 10 11 11
8 9 7 9 10 17 21 20 19 17 17 16 16 16 15 14 13 13 12 11 10 9 9 9 8 8 8 7 8 11 12 14 8 6 5 8 6 9 11 11 12 12 11
11 11 13 14 15 16 23 23 21 19 18 18 18 18 18 16 15 14 14 12 11 10 11 11 10 9 9 8 8 11 13 14 11 6 7 6 4 7 11 13 12 12 11
15 14 18 15 14 14 24 25 24 22 21 21 22 21 21 20 19 18 16 14 13 13 13 12 12 11 10 10 10 11 12 13 10 6 6 6 5 4 8 13 13 13 12
16 15 13 15 13 16 22 26 25 24 24 24 24 24 24 23 22 21 19 18 16 16 15 14 14 13 12 12 11 11 11 15 11 6 5 4 5 4 4 12 14 14 12
13 10 9 11 11 15 17 25 27 28 27 27 26 25 24 24 24 24 23 22 21 20 20 18 17 15 14 13 13 12 11 16 11 7 4 7 7 7 6 11 14 15 14
10 13 12 11 11 10 20 21 22 26 29 28 28 27 26 27 27 26 27 26 25 24 22 21 19 17 15 15 13 11 11 13 15 8 7 10 8 8 8 11 14 16 15
10 6 10 15 18 15 10 25 23 26 28 29 30 30 29 29 29 28 26 27 25 24 25 24 21 20 18 17 17 15 11 11 15 10 9 10 9 10 10 11 13 15 18
1 4 4 3 3 9 12 17 27 26 25 25 29 32 32 31 32 31 29 27 25 24 21 25 23 21 19 20 20 17 16 12 17 15 11 12 13 12 10 11 12 14 16
3 3 6 6 5 6 5 10 12 24 32 30 31 27 28 32 34 34 33 30 28 25 21 21 22 21 20 18 22 20 19 19 19 19 16 15 15 13 12 14 13 14 16
4 10 7 7 7 10 9 8 9 17 22 30 35 30 33 30 31 34 35 33 31 31 27 23 23 22 23 21 21 24 23 24 21 24 21 20 17 17 17 16 16 17 18
6 9 12 14 14 16 17 16 18 18 18 22 28 36 36 37 33 34 35 34 36 33 30 29 28 27 25 25 25 24 22 27 24 23 25 25 23 23 22 20 19 20 21
12 15 17 21 25 25 27 27 26 26 24 19 24 30 35 37 35 40 36 35 35 38 35 35 33 33 29 28 27 26 27 24 25 25 26 23 27 26 26 24 23 23 23
16 19 21 25 28 30 32 32 31 34 31 26 22 27 32 33 39 43 37 38 41 45 41 38 36 35 35 31 25 27 26 28 30 29 26 27 27 28 26 25 26 25 25
19 20 21 23 27 28 29 33 31 33 36 35 31 25 32 35 38 41 37 44 47 48 50 43 42 42 39 37 34 27 24 28 32 32 30 29 28 28 27 26 27 25 24
22 24 25 25 27 30 31 34 37 36 37 40 39 36 28 23 34 41 45 52 45 53 50 56 48 46 46 43 41 28 16 17 30 34 36 34 32 32 29 31 30 29 26
25 28 29 31 30 30 33 34 34 35 37 37 39 44 40 31 22 36 46 48 51 54 59 55 58 54 50 48 46 45 34 17 18 13 28 36 35 34 31 32 32 31 29
30 34 34 33 33 33 32 33 36 37 40 41 42 43 47 44 36 26 33 48 49 50 53 55 53 63 56 53 52 51 48 33 23 21 19 27 32 35 35 33 34 33 30
34 33 33 34 34 33 33 33 33 35 40 44 44 43 44 48 48 40 26 31 47 49 48 49 56 59 60 50 48 49 51 49 41 32 25 25 27 29 32 34 34 30 25

GFSSE_850_spd_126.txt.gz
Wind_Speed
4 5 11 13 12 12 13 11 11 11 12 12 11 10 9 8 6 6 7 8 9 10 11 13 13 11 8 5 3 3 3 3 2 5 8 11 12 13 13 14 14 15 15
2 5 7 13 12 11 11 12 11 11 12 12 11 10 9 8 7 7 7 8 9 10 11 12 11 9 7 5 4 6 5 6 5 7 9 12 11 12 12 13 13 13 13
5 4 9 12 15 13 12 12 12 11 12 13 12 11 10 8 7 7 6 7 8 10 10 10 10 9 7 7 7 7 8 8 9 10 9 10 11 11 11 12 11 13 14
4 0 7 13 17 16 14 14 13 13 12 13 13 13 12 9 8 8 7 7 7 7 8 9 8 8 8 9 9 7 9 10 12 11 11 10 11 11 11 12 12 14 13
4 4 1 8 15 17 16 15 15 14 14 14 14 14 13 10 9 9 8 7 7 7 7 7 8 8 9 11 9 10 10 13 13 13 9 7 10 10 11 12 13 12 14
5 3 1 4 11 18 18 17 16 16 15 15 15 15 15 12 11 10 9 7 7 7 7 7 8 8 10 10 9 12 13 12 9 11 11 6 5 10 11 12 13 13 13
5 2 2 7 9 19 19 17 17 17 17 17 16 17 17 14 12 12 11 10 9 8 7 7 8 9 10 9 10 13 13 13 10 10 7 5 3 8 10 12 13 12 12
6 4 4 7 6 14 18 18 18 18 18 18 18 19 19 16 14 14 13 13 12 10 9 9 9 10 10 9 11 13 14 14 11 13 10 5 5 7 10 13 13 12 12
8 8 6 6 8 8 17 18 19 19 19 19 20 21 20 19 17 16 16 15 13 13 11 10 10 11 11 10 11 13 13 12 10 12 7 5 6 8 10 13 15 14 13
6 9 9 7 6 11 14 20 21 21 20 21 21 21 22 21 20 19 18 17 16 14 13 13 12 12 12 12 13 13 14 13 11 12 7 6 8 11 12 13 14 15 14
10 8 11 8 5 8 13 20 24 24 23 22 23 23 23 24 23 22 22 20 19 17 16 15 15 14 14 14 14 15 15 15 11 8 9 9 9 10 12 13 15 15 14
10 10 8 8 8 9 11 16 26 26 26 26 26 26 27 27 26 25 23 22 21 20 19 18 17 17 16 15 16 17 16 18 15 10 7 9 8 9 9 12 15 15 15
5 7 7 9 9 9 12 12 23 27 28 29 28 29 30 29 28 28 27 26 25 24 22 21 20 20 18 18 17 18 18 20 20 14 10 10 12 11 9 10 15 17 15
8 6 6 7 8 10 12 16 17 26 29 31 31 31 31 32 32 32 31 30 29 28 26 24 23 21 20 19 18 18 19 21 23 16 13 13 13 12 11 10 15 17 17
3 3 9 8 8 9 11 13 18 22 28 29 31 31 33 34 34 33 33 32 31 30 29 28 26 24 23 22 20 20 22 22 23 19 15 13 13 11 12 13 15 18 19
7 5 5 9 9 11 11 12 15 19 24 28 30 33 35 35 36 36 35 34 33 32 31 30 28 27 25 24 23 23 22 22 24 22 18 14 14 13 12 12 16 19 20
3 3 5 6 8 10 13 14 17 17 19 21 24 31 36 39 39 38 37 36 35 35 32 29 29 28 27 27 26 26 26 25 24 25 21 18 15 15 13 14 15 17 18
2 6 7 8 10 12 14 15 15 18 19 23 26 27 31 41 35 38 40 40 39 34 32 31 28 29 30 29 28 29 28 28 26 26 24 21 20 19 17 16 17 19 19
5 8 11 14 15 17 20 23 23 23 25 25 23 25 27 26 46 39 43 42 38 36 33 34 31 31 32 33 30 29 31 28 27 27 27 26 24 23 22 21 19 20 22
10 12 14 17 20 20 21 27 33 35 35 36 35 30 25 25 25 46 49 39 38 36 37 38 37 34 33 33 32 30 30 31 29 30 28 27 26 28 28 25 23 25 25
15 18 20 21 23 26 27 30 37 44 47 44 42 41 33 28 33 33 29 41 51 35 41 44 39 36 38 38 33 33 33 32 30 30 31 31 29 27 28 29 27 27 28
23 24 25 24 26 28 31 30 31 38 44 45 40 39 39 36 30 30 26 26 52 47 43 42 40 39 41 41 40 34 31 34 36 35 34 33 33 31 30 30 30 30 26
28 29 30 30 29 29 31 34 35 35 41 46 43 40 42 41 38 30 29 23 31 52 49 48 45 41 39 43 42 33 16 21 33 40 40 37 36 35 35 32 32 31 29
33 31 31 31 32 31 29 33 34 37 40 43 47 44 41 43 43 38 32 25 24 32 50 50 46 44 48 50 44 46 37 21 19 19 42 42 40 39 39 37 33 33 32
33 33 33 31 31 31 32 30 35 36 38 41 45 47 45 43 44 43 39 33 27 30 38 48 51 56 52 57 50 48 53 41 26 21 22 38 43 43 44 41 35 34 32
30 31 32 33 31 31 31 31 31 34 34 37 40 44 46 45 43 44 42 40 36 30 35 41 47 54 52 53 62 59 53 51 41 35 28 28 35 39 44 44 38 37 32

GFSSE_850_spd_129.txt.gz
Wind_Speed
5 16 18 16 14 14 15 15 13 12 12 12 11 9 7 7 8 8 8 8 9 10 10 11 11 10 7 5 4 3 3 3 5 8 11 12 12 12 12 13 15 16 16
1 9 14 14 14 14 14 14 14 13 12 13 13 11 9 8 7 8 9 9 10 10 10 11 11 9 7 4 4 5 4 5 6 9 11 12 11 11 12 13 14 14 14
2 6 11 13 13 14 14 13 14 14 13 13 13 12 11 10 9 8 8 9 10 11 11 11 10 9 7 7 7 6 6 6 8 10 10 11 12 11 11 12 12 12 15
6 3 7 11 13 13 12 13 13 13 14 14 15 14 12 10 9 9 9 9 11 11 11 11 10 9 8 9 9 8 8 9 9 9 9 9 11 10 11 9 11 13 14
3 5 5 6 11 13 13 13 13 14 15 15 15 15 14 12 11 11 11 10 10 11 11 11 11 9 9 10 10 9 11 12 13 12 10 9 10 9 10 12 13 12 14
2 4 4 4 4 11 15 15 14 14 15 16 16 16 16 14 13 13 12 12 11 11 11 11 11 10 11 12 9 11 12 13 14 11 10 11 9 9 11 13 13 13 13
4 4 1 4 7 10 17 17 16 15 16 17 17 17 18 16 15 15 14 13 13 12 12 11 12 13 14 13 12 13 13 13 13 12 11 8 8 10 10 12 13 14 14
7 5 2 4 6 8 15 18 18 17 17 17 18 18 18 18 16 15 15 15 14 14 13 13 14 14 14 14 14 15 15 12 11 12 10 8 8 11 11 13 14 14 14
5 8 8 6 8 5 11 15 16 18 19 19 19 19 20 19 18 17 17 16 16 15 15 15 15 16 16 15 15 16 16 15 11 14 12 10 10 12 12 15 15 15 15
9 7 5 5 6 6 8 13 17 18 19 20 21 21 21 21 20 19 19 18 17 17 16 16 17 17 17 17 17 17 17 16 14 13 12 8 11 12 14 16 16 17 16
7 7 7 5 4 6 8 10 16 20 20 21 22 22 22 24 24 22 22 20 19 18 17 18 18 18 18 18 18 19 19 18 17 13 13 9 12 12 15 16 16 17 17
4 0 4 6 6 7 10 11 12 20 22 22 23 24 24 25 25 25 23 22 22 21 20 19 19 19 20 20 19 20 20 21 20 16 16 12 11 11 15 16 17 18 17
3 3 5 4 6 8 9 11 9 12 21 23 24 24 26 26 26 26 26 25 26 24 24 23 23 23 22 22 21 21 21 22 22 19 16 16 12 12 13 15 18 18 18
5 2 5 7 8 10 12 12 14 13 16 22 24 25 26 27 28 29 29 29 30 29 28 27 26 25 24 23 22 22 23 23 23 21 18 16 14 14 14 15 17 19 19
3 3 4 6 10 11 11 13 16 16 19 20 23 24 26 28 30 31 32 33 33 33 32 31 29 28 27 25 24 24 25 25 24 25 20 18 17 16 15 15 16 19 20
6 3 4 7 9 11 12 13 14 16 18 24 24 22 23 27 30 31 34 35 36 37 36 34 32 31 29 27 26 25 26 27 27 28 25 21 20 18 16 16 17 19 22
3 2 4 7 9 10 12 13 15 16 16 18 24 31 26 25 26 31 34 36 37 38 38 37 35 34 32 30 30 28 28 30 30 29 29 24 22 20 18 16 16 19 22
5 7 8 9 10 13 15 16 17 18 19 20 20 21 25 33 35 27 38 39 35 34 41 40 38 38 36 35 33 32 31 30 31 30 31 28 25 24 22 19 16 18 22
12 14 16 16 15 15 16 20 19 19 20 23 25 25 26 27 29 36 33 38 35 31 41 42 41 40 38 38 36 34 34 36 35 31 33 32 30 28 26 24 21 19 22
16 18 19 21 23 22 21 21 24 26 25 25 27 29 30 30 32 31 31 29 51 67 35 42 44 43 41 36 35 35 34 35 36 36 35 33 32 31 29 27 25 24 23
21 22 23 24 25 26 29 29 28 29 34 34 36 36 33 33 33 34 29 26 36 51 55 31 43 43 42 39 33 34 35 34 38 36 37 36 35 34 33 31 30 29 27
23 24 25 27 27 28 30 30 32 35 35 38 41 42 39 35 35 35 30 29 28 36 57 58 41 38 38 42 40 35 24 32 38 41 40 38 38 36 36 35 34 35 32
27 27 28 29 30 31 32 35 34 35 40 38 39 45 42 37 33 37 35 33 27 30 35 55 50 45 39 42 40 31 14 15 29 40 46 43 43 41 40 39 37 36 35
31 31 31 30 28 29 29 31 35 37 40 42 40 39 45 39 36 34 38 33 33 30 31 40 66 60 44 41 38 37 41 30 14 19 34 48 48 46 45 43 42 39 36
29 30 32 32 32 32 31 31 34 38 37 39 40 39 40 41 38 35 34 35 34 34 30 24 49 73 51 56 57 42 43 42 45 39 25 30 49 53 50 47 44 43 41
31 33 33 32 32 31 31 30 31 33 35 36 37 37 34 36 36 34 32 33 33 35 33 31 24 50 59 51 54 47 42 39 43 44 43 32 35 45 56 51 48 47 44

GFSSE_850_spd_132.txt.gz
Wind_Speed
3 16 18 17 17 16 15 13 11 10 9 8 8 8 8 9 10 12 11 11 10 10 10 10 11 10 8 6 5 4 4 5 7 10 13 14 14 14 15 15 15 15 15
3 11 16 17 16 16 16 14 12 10 9 8 8 8 7 7 9 9 10 10 11 11 11 11 11 10 7 6 5 7 5 8 9 11 12 12 13 14 14 14 14 14 15
3 9 15 16 15 15 15 14 13 12 10 9 9 8 8 7 8 8 10 11 11 12 12 12 11 9 7 6 7 6 6 7 10 12 11 11 12 13 13 14 13 13 16
2 7 12 13 12 13 13 13 13 13 12 12 10 10 9 7 7 8 10 10 11 11 12 12 11 9 8 8 8 6 6 8 10 11 12 12 12 12 14 13 13 14 15
2 4 7 9 10 10 11 12 13 13 14 14 13 12 11 10 8 8 9 10 10 11 11 12 11 10 9 10 9 8 9 10 11 12 12 12 12 12 13 12 13 14 14
4 3 3 4 5 8 11 12 13 13 14 15 15 14 13 12 10 9 9 10 10 10 11 12 11 11 11 12 11 9 10 10 11 11 11 11 10 9 11 14 14 14 14
6 2 1 1 4 8 11 13 12 13 14 15 16 16 16 15 12 12 11 11 11 11 12 12 11 11 12 13 12 11 12 12 11 10 9 11 10 9 10 13 14 14 15
8 7 5 4 5 6 8 11 12 13 14 16 16 17 17 17 15 14 14 13 12 12 12 12 12 12 13 14 13 13 14 13 13 12 11 10 10 12 11 13 15 15 14
7 6 5 5 7 6 5 7 11 13 14 16 17 18 19 18 18 16 16 15 14 13 13 12 12 13 14 15 14 14 15 15 14 14 13 10 11 13 13 14 16 17 16
6 5 3 5 6 5 5 6 9 14 15 16 17 19 19 20 19 18 17 17 15 14 14 14 14 14 15 15 15 16 16 16 15 14 14 11 12 13 14 15 16 18 17
6 6 4 2 4 5 5 6 7 11 16 17 18 18 20 22 22 20 19 19 18 17 16 16 16 16 17 17 17 17 18 17 16 14 17 12 13 14 15 16 17 17 18
3 4 7 7 8 8 8 8 10 10 12 16 18 19 20 22 23 22 21 20 20 20 19 18 18 18 19 20 20 20 20 19 18 17 15 14 14 15 16 17 17 18 19
4 2 6 6 8 9 11 9 12 13 12 15 17 17 20 22 22 23 23 23 23 24 24 22 22 23 22 22 21 22 22 21 21 20 16 16 13 14 16 17 18 19 19
6 5 3 4 7 8 8 10 11 13 13 15 18 20 18 20 23 24 25 26 27 27 27 26 25 24 24 24 23 24 24 24 23 23 19 19 18 16 16 17 18 19 20
5 4 2 2 5 7 7 8 9 12 14 14 16 21 23 21 21 22 25 27 29 30 31 30 29 28 27 27 26 26 25 26 26 26 26 22 21 19 18 18 17 18 21
3 1 2 4 5 7 9 10 11 11 13 14 14 17 20 24 26 24 24 26 29 32 34 34 33 31 30 29 29 29 28 28 28 28 28 26 23 21 20 19 19 18 22
7 8 8 8 10 11 11 12 13 14 15 15 16 16 15 17 17 23 24 30 27 33 36 35 34 33 33 32 33 32 31 30 31 31 30 29 26 24 23 22 20 20 21
13 14 15 14 14 15 16 16 17 17 17 17 17 18 18 19 20 21 22 26 41 30 41 35 32 33 33 35 36 35 35 33 33 33 33 34 31 27 26 25 22 20 21
18 19 20 21 21 19 18 20 21 20 19 19 20 22 22 21 23 26 27 23 27 41 43 21 26 27 31 36 37 39 38 36 36 35 37 35 34 31 29 27 25 22 22
19 21 22 23 24 24 23 22 21 23 24 23 23 24 25 26 26 26 28 26 25 34 39 32 44 24 29 35 40 39 40 38 39 38 37 36 36 35 33 30 28 27 25
20 22 25 26 27 28 30 31 27 26 28 29 30 30 32 31 30 29 30 31 27 30 32 25 39 55 46 38 36 41 38 38 43 41 42 40 37 38 36 34 32 31 29
22 23 23 25 27 29 31 32 34 37 33 31 33 35 35 36 35 35 33 34 31 31 31 34 28 39 64 65 40 38 30 33 41 44 43 45 42 40 38 37 36 35 34
27 29 29 28 28 28 30 33 34 35 38 37 34 34 34 37 37 35 34 34 36 30 33 31 31 36 44 54 60 37 24 22 30 45 44 45 43 43 41 40 39 39 39
28 28 29 29 29 30 28 30 32 34 37 38 38 38 37 31 35 34 33 32 35 34 34 37 33 33 45 54 56 49 43 26 19 29 36 44 43 45 43 42 42 42 41
29 31 31 30 31 30 29 28 30 32 33 36 37 36 35 35 30 30 30 28 32 35 34 38 37 27 43 59 54 49 36 36 32 32 20 24 32 41 47 46 44 44 45
30 31 31 31 31 31 30 29 29 28 29 31 32 32 32 31 27 27 28 27 28 33 33 35 39 37 32 48 60 62 59 41 40 40 36 34 36 35 30 30 38 48 48